Observation data for Lesley on 12/08/2018      Previous  Date       Current Mesonet Observations  Soil Data  Daily Summary Page  Observations in Plain Language
KLE1 080600Z 02005KT 01/M01 A3035 RMK A01 T00061013  RH  087%=      5-min Rain = 0
KLE1 080601Z 03005KT 01/M01 A3035 RMK A01 T00061013  RH  087%=      5-min Rain = 0
KLE1 080602Z 02007KT 01/M01 A3035 RMK A01 T00061012  RH  087%=      5-min Rain = 0
KLE1 080603Z 02006KT 01/M01 A3034 RMK A01 T00061013  RH  087%=      5-min Rain = 0
KLE1 080604Z 03005KT 01/M01 A3034 RMK A01 T00061013  RH  087%=      5-min Rain = 0
KLE1 080605Z 03006KT 01/M01 A3034 RMK A01 T00061012  RH  088%=      5-min Rain = 0
KLE1 080606Z 02006KT 01/M01 A3034 RMK A01 T00061011  RH  088%=      5-min Rain = 0
KLE1 080607Z 02005KT 01/M01 A3034 RMK A01 T00061011  RH  088%=      5-min Rain = 0
KLE1 080608Z 01006KT 01/M01 A3034 RMK A01 T00061011  RH  088%=      5-min Rain = 0
KLE1 080609Z 01007KT 01/M01 A3034 RMK A01 T00061012  RH  088%=      5-min Rain = 0
KLE1 080610Z 02007KT 01/M01 A3034 RMK A01 T00061012  RH  088%=      5-min Rain = 0
KLE1 080611Z 02006KT 01/M01 A3035 RMK A01 T00051012  RH  088%=      5-min Rain = 0
KLE1 080612Z 03006KT 01/M01 A3035 RMK A01 T00051012  RH  089%=      5-min Rain = 0
KLE1 080613Z 03006KT 01/M01 A3035 RMK A01 T00051011  RH  089%=      5-min Rain = 0
KLE1 080614Z 02006KT 01/M01 A3035 RMK A01 T00051011  RH  089%=      5-min Rain = 0
KLE1 080615Z 02005KT 01/M01 A3035 RMK A01 T00051011  RH  090%=      5-min Rain = 0
KLE1 080616Z 02006KT 00/M01 A3035 RMK A01 T00041010  RH  090%=      5-min Rain = 0
KLE1 080617Z 02007KT 00/M01 A3035 RMK A01 T00041011  RH  090%=      5-min Rain = 0
KLE1 080618Z 02006KT 00/M01 A3034 RMK A01 T00041011  RH  090%=      5-min Rain = 0
KLE1 080619Z 02006KT 00/M01 A3034 RMK A01 T00041010  RH  090%=      5-min Rain = 0
KLE1 080620Z 02007KT 00/M01 A3034 RMK A01 T00031010  RH  091%=      5-min Rain = 0
KLE1 080621Z 03007KT 00/M01 A3034 RMK A01 T00031010  RH  091%=      5-min Rain = 0
KLE1 080622Z 03006KT 00/M01 A3034 RMK A01 T00031010  RH  091%=      5-min Rain = 0
KLE1 080623Z 03008KT 00/M01 A3034 RMK A01 T00031009  RH  091%=      5-min Rain = 0
KLE1 080624Z 03006KT 00/M01 A3034 RMK A01 T00021010  RH  092%=      5-min Rain = 0
KLE1 080625Z 03006KT 00/M01 A3034 RMK A01 T00031009  RH  092%=      5-min Rain = 0
KLE1 080626Z 03006KT 00/M01 A3034 RMK A01 T00021009  RH  092%=      5-min Rain = 0
KLE1 080627Z 03007KT 00/M01 A3034 RMK A01 T00021009  RH  092%=      5-min Rain = 0
KLE1 080628Z 04007KT 00/M01 A3034 RMK A01 T00021009  RH  092%=      5-min Rain = 0
KLE1 080629Z 04007KT 00/M01 A3034 RMK A01 T00021009  RH  093%=      5-min Rain = 0
KLE1 080630Z 04006KT 00/M01 A3034 RMK A01 T00021009  RH  093%=      5-min Rain = 0
KLE1 080631Z 03005KT 00/M01 A3034 RMK A01 T00021009  RH  093%=      5-min Rain = 0
KLE1 080632Z 04005KT 00/M01 A3034 RMK A01 T00021009  RH  093%=      5-min Rain = 0
KLE1 080633Z 03005KT 00/M01 A3034 RMK A01 T00021008  RH  093%=      5-min Rain = 0
KLE1 080634Z 02005KT 00/M01 A3034 RMK A01 T00021008  RH  093%=      5-min Rain = 0
KLE1 080635Z 02004KT 00/M01 A3034 RMK A01 T00021008  RH  093%=      5-min Rain = 0
KLE1 080636Z 02005KT 00/M01 A3034 RMK A01 T00021008  RH  093%=      5-min Rain = 0
KLE1 080637Z 03004KT 00/M01 A3034 RMK A01 T00021008  RH  094%=      5-min Rain = 0
KLE1 080638Z 04006KT 00/M01 A3034 RMK A01 T00021007  RH  094%=      5-min Rain = 0
KLE1 080639Z 03006KT 00/M01 A3034 RMK A01 T00021007  RH  094%=      5-min Rain = 0
KLE1 080640Z 03006KT 00/M01 A3034 RMK A01 T00021007  RH  094%=      5-min Rain = 0
KLE1 080641Z 03006KT 00/M01 A3034 RMK A01 T00021007  RH  094%=      5-min Rain = 0
KLE1 080642Z 02007KT 00/M01 A3034 RMK A01 T00021007  RH  094%=      5-min Rain = 0
KLE1 080643Z 02007KT 00/M01 A3034 RMK A01 T00011007  RH  094%=      5-min Rain = 0
KLE1 080644Z 03006KT 00/M01 A3034 RMK A01 T00011007  RH  094%=      5-min Rain = 0
KLE1 080645Z 02006KT 00/M01 A3034 RMK A01 T00011007  RH  094%=      5-min Rain = 0
KLE1 080646Z 02005KT 00/M01 A3034 RMK A01 T00011007  RH  094%=      5-min Rain = 0
KLE1 080647Z 02004KT 00/M01 A3034 RMK A01 T00011006  RH  095%=      5-min Rain = 0
KLE1 080648Z 02005KT 00/M01 A3034 RMK A01 T00011006  RH  095%=      5-min Rain = 0
KLE1 080649Z 01006KT 00/M01 A3034 RMK A01 T00011006  RH  095%=      5-min Rain = 0
KLE1 080650Z 02006KT 00/M01 A3033 RMK A01 T00011006  RH  095%=      5-min Rain = 0
KLE1 080651Z 01007KT 00/M01 A3033 RMK A01 T00011006  RH  095%=      5-min Rain = 0
KLE1 080652Z 01008KT 00/M01 A3033 RMK A01 T00011006  RH  095%=      5-min Rain = 0
KLE1 080653Z 01008KT 00/01 A3033 RMK A01 T000000-7  RH  095%=      5-min Rain = 0
KLE1 080654Z 02008KT 00/01 A3033 RMK A01 T000000-7  RH  095%=      5-min Rain = 0
KLE1 080655Z 01007KT 00/01 A3033 RMK A01 T000000-6  RH  095%=      5-min Rain = 0
KLE1 080656Z 02008KT 00/01 A3033 RMK A01 T000000-6  RH  095%=      5-min Rain = 0
KLE1 080657Z 02008KT 00/01 A3033 RMK A01 T000000-6  RH  095%=      5-min Rain = 0
KLE1 080658Z 02007KT 00/01 A3033 RMK A01 T00-000-7  RH  095%=      5-min Rain = 0
KLE1 080659Z 02007KT 00/01 A3033 RMK A01 T00-000-6  RH  096%=      5-min Rain = 0
KLE1 080700Z 01007KT 00/01 A3033 RMK A01 T00-000-7  RH  096%=      5-min Rain = 0
KLE1 080701Z 02007KT 00/01 A3033 RMK A01 T00-000-6  RH  096%=      5-min Rain = 0
KLE1 080702Z 02005KT 00/01 A3033 RMK A01 T00-000-6  RH  096%=      5-min Rain = 0
KLE1 080703Z 02005KT 00/01 A3033 RMK A01 T00-000-6  RH  096%=      5-min Rain = 0
KLE1 080704Z 02005KT 00/01 A3033 RMK A01 T00-000-6  RH  096%=      5-min Rain = 0
KLE1 080705Z 02005KT 00/01 A3033 RMK A01 T00-000-6  RH  096%=      5-min Rain = 0
KLE1 080706Z 02005KT 00/01 A3033 RMK A01 T00-000-6  RH  096%=      5-min Rain = 0
KLE1 080707Z 01005KT 00/01 A3033 RMK A01 T00-000-6  RH  096%=      5-min Rain = 0
KLE1 080708Z 01004KT 00/01 A3033 RMK A01 T00-000-6  RH  096%=      5-min Rain = 0
KLE1 080709Z 00004KT 00/01 A3033 RMK A01 T00-000-6  RH  096%=      5-min Rain = 0
KLE1 080710Z 01005KT 00/01 A3033 RMK A01 T000000-5  RH  096%=      5-min Rain = 0
KLE1 080711Z 00006KT 00/01 A3033 RMK A01 T00-000-6  RH  096%=      5-min Rain = 0
KLE1 080712Z 00006KT 00/01 A3033 RMK A01 T000000-5  RH  096%=      5-min Rain = 0
KLE1 080713Z 00007KT 00/01 A3033 RMK A01 T00-000-6  RH  096%=      5-min Rain = 0
KLE1 080714Z 01007KT 00/01 A3033 RMK A01 T00-000-5  RH  096%=      5-min Rain = 0
KLE1 080715Z 01007KT M00/M01 A3033 RMK A01 T10011006  RH  096%=      5-min Rain = 0
KLE1 080716Z 01007KT M00/M01 A3033 RMK A01 T10011006  RH  096%=      5-min Rain = 0
KLE1 080717Z 01008KT M00/M01 A3033 RMK A01 T10011006  RH  096%=      5-min Rain = 0
KLE1 080718Z 01007KT M00/M01 A3033 RMK A01 T10011006  RH  096%=      5-min Rain = 0
KLE1 080719Z 00006KT M00/M01 A3033 RMK A01 T10011006  RH  096%=      5-min Rain = 0
KLE1 080720Z 00007KT M00/M01 A3033 RMK A01 T10011006  RH  096%=      5-min Rain = 0
KLE1 080721Z 00007KT M00/M01 A3033 RMK A01 T10011006  RH  096%=      5-min Rain = 0
KLE1 080722Z 01006KT M00/M01 A3033 RMK A01 T10011006  RH  096%=      5-min Rain = 0
KLE1 080723Z 01006KT M00/M01 A3033 RMK A01 T10011006  RH  096%=      5-min Rain = 0
KLE1 080724Z 01005KT M00/M01 A3033 RMK A01 T10011006  RH  096%=      5-min Rain = 0
KLE1 080725Z 01005KT M00/M01 A3033 RMK A01 T10011006  RH  096%=      5-min Rain = 0
KLE1 080726Z 01006KT M00/M01 A3033 RMK A01 T10011006  RH  096%=      5-min Rain = 0
KLE1 080727Z 01006KT 00/01 A3033 RMK A01 T00-000-5  RH  096%=      5-min Rain = 0
KLE1 080728Z 01005KT M00/M01 A3033 RMK A01 T10011006  RH  096%=      5-min Rain = 0
KLE1 080729Z 00005KT 00/01 A3033 RMK A01 T00-000-6  RH  096%=      5-min Rain = 0
KLE1 080730Z 00005KT M00/M01 A3033 RMK A01 T10011006  RH  096%=      5-min Rain = 0
KLE1 080731Z 00005KT M00/M01 A3033 RMK A01 T10011006  RH  096%=      5-min Rain = 0
KLE1 080732Z 36004KT M00/M01 A3033 RMK A01 T10011006  RH  096%=      5-min Rain = 0
KLE1 080733Z 36005KT M00/M01 A3033 RMK A01 T10011005  RH  097%=      5-min Rain = 0
KLE1 080734Z 00004KT 00/01 A3033 RMK A01 T00-000-5  RH  097%=      5-min Rain = 0
KLE1 080735Z 00004KT 00/01 A3033 RMK A01 T00-000-5  RH  097%=      5-min Rain = 0
KLE1 080736Z 35005KT 00/00 A3033 RMK A01 T000000-4  RH  097%=      5-min Rain = 0
KLE1 080737Z 36006KT 00/01 A3033 RMK A01 T000000-5  RH  097%=      5-min Rain = 0
KLE1 080738Z 00005KT 00/01 A3033 RMK A01 T00-000-5  RH  097%=      5-min Rain = 0
KLE1 080739Z 36005KT 00/01 A3033 RMK A01 T00-000-5  RH  097%=      5-min Rain = 0
KLE1 080740Z 34006KT 00/01 A3033 RMK A01 T00-000-5  RH  097%=      5-min Rain = 0
KLE1 080741Z 34006KT 00/01 A3033 RMK A01 T00-000-5  RH  097%=      5-min Rain = 0
KLE1 080742Z 36005KT 00/00 A3033 RMK A01 T000000-4  RH  097%=      5-min Rain = 0
KLE1 080743Z 01005KT 00/00 A3033 RMK A01 T000000-4  RH  097%=      5-min Rain = 0
KLE1 080744Z 36005KT 00/00 A3033 RMK A01 T00-000-4  RH  097%=      5-min Rain = 0
KLE1 080745Z 34005KT 00/00 A3033 RMK A01 T00-000-4  RH  097%=      5-min Rain = 0
KLE1 080746Z 35007KT 00/00 A3033 RMK A01 T00-000-4  RH  097%=      5-min Rain = 0
KLE1 080747Z 36008KT 00/00 A3033 RMK A01 T00-000-4  RH  097%=      5-min Rain = 0
KLE1 080748Z 36008KT M00/M01 A3033 RMK A01 T10011005  RH  097%=      5-min Rain = 0
KLE1 080749Z 36009KT M00/M01 A3033 RMK A01 T10011005  RH  097%=      5-min Rain = 0
KLE1 080750Z 00008KT M00/M01 A3033 RMK A01 T10011006  RH  097%=      5-min Rain = 0
KLE1 080751Z 36009KT M00/M01 A3033 RMK A01 T10021006  RH  097%=      5-min Rain = 0
KLE1 080752Z 00010KT M00/M01 A3033 RMK A01 T10021006  RH  097%=      5-min Rain = 0
KLE1 080753Z 00009KT M00/M01 A3033 RMK A01 T10021007  RH  097%=      5-min Rain = 0
KLE1 080754Z 00008KT M00/M01 A3033 RMK A01 T10021007  RH  097%=      5-min Rain = 0
KLE1 080755Z 00007KT M00/M01 A3033 RMK A01 T10021007  RH  097%=      5-min Rain = 0
KLE1 080756Z 00007KT M00/M01 A3033 RMK A01 T10021007  RH  097%=      5-min Rain = 0
KLE1 080757Z 00006KT M00/M01 A3033 RMK A01 T10021007  RH  097%=      5-min Rain = 0
KLE1 080758Z 00007KT M00/M01 A3033 RMK A01 T10021007  RH  097%=      5-min Rain = 0
KLE1 080759Z 36006KT M00/M01 A3033 RMK A01 T10021007  RH  097%=      5-min Rain = 0
KLE1 080800Z 36006KT M00/M01 A3033 RMK A01 T10021007  RH  097%=      5-min Rain = 0
KLE1 080801Z 36005KT M00/M01 A3033 RMK A01 T10021007  RH  097%=      5-min Rain = 0
KLE1 080802Z 35005KT M00/M01 A3033 RMK A01 T10021006  RH  097%=      5-min Rain = 0
KLE1 080803Z 35006KT M00/M01 A3033 RMK A01 T10021007  RH  097%=      5-min Rain = 0
KLE1 080804Z 00006KT M00/M01 A3033 RMK A01 T10021006  RH  097%=      5-min Rain = 0
KLE1 080805Z 36007KT M00/M01 A3033 RMK A01 T10021006  RH  097%=      5-min Rain = 0
KLE1 080806Z 35005KT M00/M01 A3033 RMK A01 T10021007  RH  097%=      5-min Rain = 0
KLE1 080807Z 36005KT M00/M01 A3033 RMK A01 T10021006  RH  097%=      5-min Rain = 0
KLE1 080808Z 36008KT M00/M01 A3033 RMK A01 T10021006  RH  097%=      5-min Rain = 0
KLE1 080809Z 36007KT M00/M01 A3032 RMK A01 T10021006  RH  097%=      5-min Rain = 0
KLE1 080810Z 00008KT M00/M01 A3032 RMK A01 T10021006  RH  097%=      5-min Rain = 0
KLE1 080811Z 36007KT M00/M01 A3032 RMK A01 T10021006  RH  097%=      5-min Rain = 0
KLE1 080812Z 00008KT M00/M01 A3032 RMK A01 T10021007  RH  097%=      5-min Rain = 0
KLE1 080813Z 36008KT M00/M01 A3032 RMK A01 T10021007  RH  097%=      5-min Rain = 0
KLE1 080814Z 35008KT M00/M01 A3032 RMK A01 T10021006  RH  097%=      5-min Rain = 0
KLE1 080815Z 00006KT M00/M01 A3032 RMK A01 T10021006  RH  097%=      5-min Rain = 0
KLE1 080816Z 36007KT M00/M01 A3032 RMK A01 T10021007  RH  097%=      5-min Rain = 0
KLE1 080817Z 01006KT M00/M01 A3032 RMK A01 T10021006  RH  097%=      5-min Rain = 0
KLE1 080818Z 01007KT M00/M01 A3032 RMK A01 T10021007  RH  097%=      5-min Rain = 0
KLE1 080819Z 00007KT M00/M01 A3032 RMK A01 T10021007  RH  097%=      5-min Rain = 0
KLE1 080820Z 00007KT M00/M01 A3032 RMK A01 T10021007  RH  097%=      5-min Rain = 0
KLE1 080821Z 00007KT M00/M01 A3032 RMK A01 T10021007  RH  097%=      5-min Rain = 0
KLE1 080822Z 00007KT M00/M01 A3032 RMK A01 T10021007  RH  097%=      5-min Rain = 0
KLE1 080823Z 00008KT M00/M01 A3032 RMK A01 T10021007  RH  096%=      5-min Rain = 0
KLE1 080824Z 01006KT M00/M01 A3032 RMK A01 T10021007  RH  096%=      5-min Rain = 0
KLE1 080825Z 01006KT M00/M01 A3032 RMK A01 T10021008  RH  096%=      5-min Rain = 0
KLE1 080826Z 01006KT M00/M01 A3032 RMK A01 T10021008  RH  096%=      5-min Rain = 0
KLE1 080827Z 02005KT M00/M01 A3032 RMK A01 T10021008  RH  096%=      5-min Rain = 0
KLE1 080828Z 02007KT M00/M01 A3032 RMK A01 T10021008  RH  096%=      5-min Rain = 0
KLE1 080829Z 02007KT M00/M01 A3032 RMK A01 T10021008  RH  096%=      5-min Rain = 0
KLE1 080830Z 02006KT M00/M01 A3032 RMK A01 T10021009  RH  095%=      5-min Rain = 0
KLE1 080831Z 02007KT M00/M01 A3032 RMK A01 T10021009  RH  095%=      5-min Rain = 0
KLE1 080832Z 02005KT M00/M01 A3032 RMK A01 T10021010  RH  095%=      5-min Rain = 0
KLE1 080833Z 02006KT M00/M01 A3032 RMK A01 T10021010  RH  094%=      5-min Rain = 0
KLE1 080834Z 03006KT M00/M01 A3032 RMK A01 T10021010  RH  094%=      5-min Rain = 0
KLE1 080835Z 03006KT M00/M01 A3032 RMK A01 T10021011  RH  094%=      5-min Rain = 0
KLE1 080836Z 02005KT M00/M01 A3032 RMK A01 T10021011  RH  094%=      5-min Rain = 0
KLE1 080837Z 01006KT M00/M01 A3032 RMK A01 T10011011  RH  093%=      5-min Rain = 0
KLE1 080838Z 01007KT M00/M01 A3032 RMK A01 T10011012  RH  093%=      5-min Rain = 0
KLE1 080839Z 03006KT M00/M01 A3032 RMK A01 T10021013  RH  092%=      5-min Rain = 0
KLE1 080840Z 01006KT M00/M01 A3032 RMK A01 T10011013  RH  092%=      5-min Rain = 0
KLE1 080841Z 01006KT M00/M01 A3032 RMK A01 T10011013  RH  091%=      5-min Rain = 0
KLE1 080842Z 02004KT M00/M01 A3032 RMK A01 T10011014  RH  091%=      5-min Rain = 0
KLE1 080843Z 02004KT M00/M01 A3032 RMK A01 T10011014  RH  091%=      5-min Rain = 0
KLE1 080844Z 02005KT M00/M01 A3032 RMK A01 T10011013  RH  091%=      5-min Rain = 0
KLE1 080845Z 03006KT M00/M01 A3032 RMK A01 T10011013  RH  092%=      5-min Rain = 0
KLE1 080846Z 03008KT M00/M01 A3031 RMK A01 T10011014  RH  091%=      5-min Rain = 0
KLE1 080847Z 01007KT M00/M02 A3031 RMK A01 T10011015  RH  090%=      5-min Rain = 0
KLE1 080848Z 02007KT M00/M02 A3031 RMK A01 T10011017  RH  089%=      5-min Rain = 0
KLE1 080849Z 03006KT M00/M02 A3032 RMK A01 T10011017  RH  089%=      5-min Rain = 0
KLE1 080850Z 02006KT M00/M02 A3032 RMK A01 T10011018  RH  088%=      5-min Rain = 0
KLE1 080851Z 01006KT M00/M02 A3032 RMK A01 T10011018  RH  088%=      5-min Rain = 0
KLE1 080852Z 01005KT M00/M02 A3032 RMK A01 T10011019  RH  088%=      5-min Rain = 0
KLE1 080853Z 02005KT M00/M02 A3032 RMK A01 T10011018  RH  088%=      5-min Rain = 0
KLE1 080854Z 02004KT M00/M02 A3032 RMK A01 T10011019  RH  088%=      5-min Rain = 0
KLE1 080855Z 02005KT M00/M02 A3031 RMK A01 T10011019  RH  088%=      5-min Rain = 0
KLE1 080856Z 03006KT M00/M02 A3031 RMK A01 T10021019  RH  088%=      5-min Rain = 0
KLE1 080857Z 02005KT M00/M02 A3031 RMK A01 T10011020  RH  087%=      5-min Rain = 0
KLE1 080858Z 01004KT M00/M02 A3031 RMK A01 T10011020  RH  087%=      5-min Rain = 0
KLE1 080859Z 02005KT M00/M02 A3031 RMK A01 T10021021  RH  087%=      5-min Rain = 0
KLE1 080900Z 02004KT M00/M02 A3031 RMK A01 T10011021  RH  087%=      5-min Rain = 0
KLE1 080901Z 02005KT M00/M02 A3031 RMK A01 T10021022  RH  086%=      5-min Rain = 0
KLE1 080902Z 02004KT M00/M02 A3031 RMK A01 T10011021  RH  086%=      5-min Rain = 0
KLE1 080903Z 02004KT M00/M02 A3031 RMK A01 T10021022  RH  086%=      5-min Rain = 0
KLE1 080904Z 02004KT M00/M02 A3031 RMK A01 T10011021  RH  086%=      5-min Rain = 0
KLE1 080905Z 02005KT M00/M02 A3031 RMK A01 T10021022  RH  086%=      5-min Rain = 0
KLE1 080906Z 02005KT M00/M02 A3031 RMK A01 T10011022  RH  086%=      5-min Rain = 0
KLE1 080907Z 02005KT M00/M02 A3031 RMK A01 T10011022  RH  086%=      5-min Rain = 0
KLE1 080908Z 02005KT M00/M02 A3031 RMK A01 T10011023  RH  085%=      5-min Rain = 0
KLE1 080909Z 03006KT M00/M02 A3031 RMK A01 T10011023  RH  085%=      5-min Rain = 0
KLE1 080910Z 02005KT M00/M02 A3031 RMK A01 T10021023  RH  085%=      5-min Rain = 0
KLE1 080911Z 02004KT M00/M02 A3031 RMK A01 T10011023  RH  086%=      5-min Rain = 0
KLE1 080912Z 02004KT M00/M02 A3031 RMK A01 T10021023  RH  086%=      5-min Rain = 0
KLE1 080913Z 02004KT M00/M02 A3031 RMK A01 T10011023  RH  086%=      5-min Rain = 0
KLE1 080914Z 03005KT M00/M02 A3031 RMK A01 T10011023  RH  085%=      5-min Rain = 0
KLE1 080915Z 03005KT M00/M02 A3031 RMK A01 T10011024  RH  085%=      5-min Rain = 0
KLE1 080916Z 03003KT M00/M03 A3031 RMK A01 T10011026  RH  084%=      5-min Rain = 0
KLE1 080917Z 03003KT M00/M02 A3031 RMK A01 T10011024  RH  085%=      5-min Rain = 0
KLE1 080918Z 04004KT M00/M02 A3031 RMK A01 T10011023  RH  085%=      5-min Rain = 0
KLE1 080919Z 03003KT M00/M02 A3031 RMK A01 T10011022  RH  086%=      5-min Rain = 0
KLE1 080920Z 03003KT M00/M02 A3031 RMK A01 T10011022  RH  086%=      5-min Rain = 0
KLE1 080921Z 05001KT M00/M02 A3031 RMK A01 T10011023  RH  085%=      5-min Rain = 0
KLE1 080922Z 06001KT M00/M02 A3031 RMK A01 T10011022  RH  086%=      5-min Rain = 0
KLE1 080923Z 08000KT M00/M02 A3031 RMK A01 T10011022  RH  086%=      5-min Rain = 0
KLE1 080924Z 08001KT M00/M02 A3031 RMK A01 T10011022  RH  086%=      5-min Rain = 0
KLE1 080925Z 03002KT M00/M02 A3031 RMK A01 T10021023  RH  085%=      5-min Rain = 0
KLE1 080926Z 02002KT M00/M03 A3031 RMK A01 T10011025  RH  084%=      5-min Rain = 0
KLE1 080927Z 36002KT M00/M03 A3031 RMK A01 T10011026  RH  084%=      5-min Rain = 0
KLE1 080928Z 02001KT M00/M03 A3031 RMK A01 T10011026  RH  083%=      5-min Rain = 0
KLE1 080929Z 05001KT M00/M03 A3031 RMK A01 T10011026  RH  083%=      5-min Rain = 0
KLE1 080930Z 06001KT M00/M03 A3031 RMK A01 T10011025  RH  084%=      5-min Rain = 0
KLE1 080931Z 04001KT M00/M03 A3031 RMK A01 T10011026  RH  083%=      5-min Rain = 0
KLE1 080932Z 02001KT M00/M03 A3031 RMK A01 T10011025  RH  084%=      5-min Rain = 0
KLE1 080933Z 34001KT M00/M03 A3031 RMK A01 T10011026  RH  084%=      5-min Rain = 0
KLE1 080934Z 06001KT M00/M03 A3031 RMK A01 T10011025  RH  084%=      5-min Rain = 0
KLE1 080935Z 08001KT M00/M03 A3031 RMK A01 T10011025  RH  084%=      5-min Rain = 0
KLE1 080936Z 00000KT M00/M02 A3031 RMK A01 T10011024  RH  084%=      5-min Rain = 0
KLE1 080937Z 26000KT M00/M02 A3031 RMK A01 T10011024  RH  085%=      5-min Rain = 0
KLE1 080938Z 35000KT M00/M02 A3031 RMK A01 T10011024  RH  085%=      5-min Rain = 0
KLE1 080939Z 32000KT M00/M02 A3031 RMK A01 T10011024  RH  085%=      5-min Rain = 0
KLE1 080940Z 33001KT M00/M02 A3031 RMK A01 T10011024  RH  085%=      5-min Rain = 0
KLE1 080941Z 35002KT M00/M02 A3031 RMK A01 T10011024  RH  085%=      5-min Rain = 0
KLE1 080942Z 01002KT M00/M02 A3031 RMK A01 T10021023  RH  085%=      5-min Rain = 0
KLE1 080943Z 02002KT M00/M02 A3031 RMK A01 T10021022  RH  086%=      5-min Rain = 0
KLE1 080944Z 35002KT M00/M02 A3031 RMK A01 T10021022  RH  086%=      5-min Rain = 0
KLE1 080945Z 02001KT M00/M02 A3031 RMK A01 T10021023  RH  086%=      5-min Rain = 0
KLE1 080946Z 01001KT M00/M02 A3031 RMK A01 T10021024  RH  085%=      5-min Rain = 0
KLE1 080947Z 30001KT M00/M02 A3031 RMK A01 T10021024  RH  085%=      5-min Rain = 0
KLE1 080948Z 31001KT M00/M02 A3031 RMK A01 T10021024  RH  085%=      5-min Rain = 0
KLE1 080949Z 34001KT M00/M02 A3031 RMK A01 T10021024  RH  085%=      5-min Rain = 0
KLE1 080950Z 27001KT M00/M02 A3031 RMK A01 T10021023  RH  086%=      5-min Rain = 0
KLE1 080951Z 27001KT M00/M02 A3031 RMK A01 T10021022  RH  086%=      5-min Rain = 0
KLE1 080952Z 33001KT M00/M02 A3031 RMK A01 T10021022  RH  086%=      5-min Rain = 0
KLE1 080953Z 03001KT M00/M02 A3031 RMK A01 T10021022  RH  087%=      5-min Rain = 0
KLE1 080954Z 30000KT M00/M02 A3031 RMK A01 T10021022  RH  087%=      5-min Rain = 0
KLE1 080955Z 02000KT M00/M02 A3031 RMK A01 T10021024  RH  086%=      5-min Rain = 0
KLE1 080956Z 23001KT M00/M03 A3031 RMK A01 T10021027  RH  083%=      5-min Rain = 0
KLE1 080957Z 30001KT M00/M03 A3031 RMK A01 T10021027  RH  083%=      5-min Rain = 0
KLE1 080958Z 31001KT M00/M03 A3031 RMK A01 T10021026  RH  084%=      5-min Rain = 0
KLE1 080959Z 31002KT M00/M02 A3031 RMK A01 T10021023  RH  086%=      5-min Rain = 0
KLE1 081000Z 31002KT M00/M02 A3031 RMK A01 T10021023  RH  086%=      5-min Rain = 0
KLE1 081001Z 31002KT M00/M02 A3031 RMK A01 T10021022  RH  087%=      5-min Rain = 0
KLE1 081002Z 33001KT M00/M02 A3031 RMK A01 T10031022  RH  087%=      5-min Rain = 0
KLE1 081003Z 32002KT M00/M02 A3031 RMK A01 T10031022  RH  087%=      5-min Rain = 0
KLE1 081004Z 33002KT M00/M02 A3031 RMK A01 T10031023  RH  087%=      5-min Rain = 0
KLE1 081005Z 33002KT M00/M02 A3031 RMK A01 T10031022  RH  087%=      5-min Rain = 0
KLE1 081006Z 34003KT M00/M02 A3031 RMK A01 T10041022  RH  088%=      5-min Rain = 0
KLE1 081007Z 35003KT M00/M02 A3031 RMK A01 T10041022  RH  088%=      5-min Rain = 0
KLE1 081008Z 34003KT M00/M02 A3031 RMK A01 T10041022  RH  088%=      5-min Rain = 0
KLE1 081009Z 34003KT M00/M02 A3031 RMK A01 T10041021  RH  088%=      5-min Rain = 0
KLE1 081010Z 34003KT M01/M02 A3031 RMK A01 T10051022  RH  088%=      5-min Rain = 0
KLE1 081011Z 34003KT M01/M02 A3031 RMK A01 T10051021  RH  088%=      5-min Rain = 0
KLE1 081012Z 33003KT M01/M02 A303 RMK A01 T10051022  RH  088%=      5-min Rain = 0
KLE1 081013Z 33003KT M01/M02 A303 RMK A01 T10051022  RH  088%=      5-min Rain = 0
KLE1 081014Z 33003KT M01/M02 A303 RMK A01 T10051022  RH  089%=      5-min Rain = 0
KLE1 081015Z 34003KT M01/M02 A303 RMK A01 T10051021  RH  089%=      5-min Rain = 0
KLE1 081016Z 34003KT M01/M02 A303 RMK A01 T10051020  RH  090%=      5-min Rain = 0
KLE1 081017Z 33003KT M01/M02 A303 RMK A01 T10061020  RH  090%=      5-min Rain = 0
KLE1 081018Z 32003KT M01/M02 A303 RMK A01 T10061019  RH  091%=      5-min Rain = 0
KLE1 081019Z 33003KT M01/M02 A303 RMK A01 T10061019  RH  091%=      5-min Rain = 0
KLE1 081020Z 33003KT M01/M02 A303 RMK A01 T10061019  RH  091%=      5-min Rain = 0
KLE1 081021Z 34004KT M01/M02 A303 RMK A01 T10061019  RH  091%=      5-min Rain = 0
KLE1 081022Z 33003KT M01/M02 A303 RMK A01 T10061019  RH  091%=      5-min Rain = 0
KLE1 081023Z 33003KT M01/M02 A303 RMK A01 T10061019  RH  091%=      5-min Rain = 0
KLE1 081024Z 33004KT M01/M02 A303 RMK A01 T10061020  RH  091%=      5-min Rain = 0
KLE1 081025Z 33003KT M01/M02 A303 RMK A01 T10061020  RH  091%=      5-min Rain = 0
KLE1 081026Z 32003KT M01/M02 A303 RMK A01 T10061019  RH  091%=      5-min Rain = 0
KLE1 081027Z 32003KT M01/M02 A303 RMK A01 T10061019  RH  091%=      5-min Rain = 0
KLE1 081028Z 32003KT M01/M02 A303 RMK A01 T10061019  RH  091%=      5-min Rain = 0
KLE1 081029Z 33003KT M01/M02 A303 RMK A01 T10061019  RH  091%=      5-min Rain = 0
KLE1 081030Z 33003KT M01/M02 A303 RMK A01 T10071019  RH  091%=      5-min Rain = 0
KLE1 081031Z 33003KT M01/M02 A303 RMK A01 T10071019  RH  091%=      5-min Rain = 0
KLE1 081032Z 31003KT M01/M02 A303 RMK A01 T10071019  RH  091%=      5-min Rain = 0
KLE1 081033Z 32003KT M01/M02 A303 RMK A01 T10071019  RH  091%=      5-min Rain = 0
KLE1 081034Z 32004KT M01/M02 A303 RMK A01 T10071019  RH  091%=      5-min Rain = 0
KLE1 081035Z 32003KT M01/M02 A303 RMK A01 T10071019  RH  092%=      5-min Rain = 0
KLE1 081036Z 32003KT M01/M02 A303 RMK A01 T10071019  RH  092%=      5-min Rain = 0
KLE1 081037Z 32003KT M01/M02 A303 RMK A01 T10071019  RH  092%=      5-min Rain = 0
KLE1 081038Z 32003KT M01/M02 A303 RMK A01 T10081019  RH  092%=      5-min Rain = 0
KLE1 081039Z 32003KT M01/M02 A303 RMK A01 T10071019  RH  092%=      5-min Rain = 0
KLE1 081040Z 32003KT M01/M02 A303 RMK A01 T10081018  RH  092%=      5-min Rain = 0
KLE1 081041Z 32003KT M01/M02 A303 RMK A01 T10071018  RH  092%=      5-min Rain = 0
KLE1 081042Z 33003KT M01/M02 A303 RMK A01 T10071018  RH  092%=      5-min Rain = 0
KLE1 081043Z 33003KT M01/M02 A303 RMK A01 T10071018  RH  092%=      5-min Rain = 0
KLE1 081044Z 33003KT M01/M02 A303 RMK A01 T10071018  RH  093%=      5-min Rain = 0
KLE1 081045Z 33004KT M01/M02 A303 RMK A01 T10071018  RH  093%=      5-min Rain = 0
KLE1 081046Z 33004KT M01/M02 A303 RMK A01 T10071017  RH  093%=      5-min Rain = 0
KLE1 081047Z 33003KT M01/M02 A303 RMK A01 T10071017  RH  093%=      5-min Rain = 0
KLE1 081048Z 33003KT M01/M02 A303 RMK A01 T10081018  RH  093%=      5-min Rain = 0
KLE1 081049Z 33003KT M01/M02 A303 RMK A01 T10081017  RH  093%=      5-min Rain = 0
KLE1 081050Z 33004KT M01/M02 A303 RMK A01 T10081017  RH  093%=      5-min Rain = 0
KLE1 081051Z 33004KT M01/M02 A303 RMK A01 T10081018  RH  093%=      5-min Rain = 0
KLE1 081052Z 33004KT M01/M02 A303 RMK A01 T10081018  RH  093%=      5-min Rain = 0
KLE1 081053Z 34003KT M01/M02 A303 RMK A01 T10091018  RH  093%=      5-min Rain = 0
KLE1 081054Z 34003KT M01/M02 A303 RMK A01 T10081018  RH  093%=      5-min Rain = 0
KLE1 081055Z 34003KT M01/M02 A303 RMK A01 T10081018  RH  093%=      5-min Rain = 0
KLE1 081056Z 34003KT M01/M02 A303 RMK A01 T10081018  RH  093%=      5-min Rain = 0
KLE1 081057Z 34003KT M01/M02 A303 RMK A01 T10081018  RH  093%=      5-min Rain = 0
KLE1 081058Z 35003KT M01/M02 A303 RMK A01 T10081018  RH  093%=      5-min Rain = 0
KLE1 081059Z 34003KT M01/M02 A303 RMK A01 T10081018  RH  093%=      5-min Rain = 0
KLE1 081100Z 34004KT M01/M02 A303 RMK A01 T10091018  RH  093%=      5-min Rain = 0
KLE1 081101Z 34004KT M01/M02 A303 RMK A01 T10091018  RH  093%=      5-min Rain = 0
KLE1 081102Z 35004KT M01/M02 A303 RMK A01 T10091018  RH  093%=      5-min Rain = 0
KLE1 081103Z 35003KT M01/M02 A303 RMK A01 T10091018  RH  094%=      5-min Rain = 0
KLE1 081104Z 35003KT M01/M02 A303 RMK A01 T10091018  RH  094%=      5-min Rain = 0
KLE1 081105Z 35003KT M01/M02 A303 RMK A01 T10091018  RH  094%=      5-min Rain = 0
KLE1 081106Z 36003KT M01/M02 A303 RMK A01 T10091017  RH  094%=      5-min Rain = 0
KLE1 081107Z 36004KT M01/M02 A303 RMK A01 T10091017  RH  094%=      5-min Rain = 0
KLE1 081108Z 36004KT M01/M02 A303 RMK A01 T10091018  RH  094%=      5-min Rain = 0
KLE1 081109Z 35004KT M01/M02 A303 RMK A01 T10091018  RH  094%=      5-min Rain = 0
KLE1 081110Z 36003KT M01/M02 A303 RMK A01 T10091018  RH  094%=      5-min Rain = 0
KLE1 081111Z 36004KT M01/M02 A303 RMK A01 T10091018  RH  094%=      5-min Rain = 0
KLE1 081112Z 36003KT M01/M02 A303 RMK A01 T10091017  RH  094%=      5-min Rain = 0
KLE1 081113Z 36004KT M01/M02 A303 RMK A01 T10091017  RH  094%=      5-min Rain = 0
KLE1 081114Z 36004KT M01/M02 A303 RMK A01 T10091017  RH  094%=      5-min Rain = 0
KLE1 081115Z 36004KT M01/M02 A303 RMK A01 T10091017  RH  094%=      5-min Rain = 0
KLE1 081116Z 00004KT M01/M02 A303 RMK A01 T10101018  RH  094%=      5-min Rain = 0
KLE1 081117Z 00003KT M01/M02 A303 RMK A01 T10101017  RH  095%=      5-min Rain = 0
KLE1 081118Z 00003KT M01/M02 A303 RMK A01 T10101017  RH  095%=      5-min Rain = 0
KLE1 081119Z 00003KT M01/M02 A303 RMK A01 T10101017  RH  095%=      5-min Rain = 0
KLE1 081120Z 01003KT M01/M02 A303 RMK A01 T10101017  RH  095%=      5-min Rain = 0
KLE1 081121Z 36003KT M01/M02 A303 RMK A01 T10101017  RH  095%=      5-min Rain = 0
KLE1 081122Z 00003KT M01/M02 A303 RMK A01 T10101017  RH  095%=      5-min Rain = 0
KLE1 081123Z 36003KT M01/M02 A303 RMK A01 T10101017  RH  095%=      5-min Rain = 0
KLE1 081124Z 36003KT M01/M02 A303 RMK A01 T10091016  RH  095%=      5-min Rain = 0
KLE1 081125Z 36003KT M01/M02 A303 RMK A01 T10101017  RH  095%=      5-min Rain = 0
KLE1 081126Z 35002KT M01/M02 A303 RMK A01 T10101017  RH  095%=      5-min Rain = 0
KLE1 081127Z 35002KT M01/M02 A303 RMK A01 T10091017  RH  095%=      5-min Rain = 0
KLE1 081128Z 35002KT M01/M02 A303 RMK A01 T10101017  RH  095%=      5-min Rain = 0
KLE1 081129Z 35002KT M01/M02 A303 RMK A01 T10101017  RH  095%=      5-min Rain = 0
KLE1 081130Z 34002KT M01/M02 A303 RMK A01 T10091016  RH  095%=      5-min Rain = 0
KLE1 081131Z 34002KT M01/M02 A303 RMK A01 T10101016  RH  095%=      5-min Rain = 0
KLE1 081132Z 34003KT M01/M02 A303 RMK A01 T10101016  RH  095%=      5-min Rain = 0
KLE1 081133Z 34003KT M01/M02 A303 RMK A01 T10101016  RH  095%=      5-min Rain = 0
KLE1 081134Z 34003KT M01/M02 A303 RMK A01 T10101016  RH  095%=      5-min Rain = 0
KLE1 081135Z 34002KT M01/M02 A303 RMK A01 T10101016  RH  095%=      5-min Rain = 0
KLE1 081136Z 34002KT M01/M02 A303 RMK A01 T10101016  RH  095%=      5-min Rain = 0
KLE1 081137Z 34003KT M01/M02 A303 RMK A01 T10101016  RH  095%=      5-min Rain = 0
KLE1 081138Z 34002KT M01/M02 A303 RMK A01 T10101017  RH  096%=      5-min Rain = 0
KLE1 081139Z 33002KT M01/M02 A303 RMK A01 T10101016  RH  096%=      5-min Rain = 0
KLE1 081140Z 33002KT M01/M02 A303 RMK A01 T10101016  RH  096%=      5-min Rain = 0
KLE1 081141Z 33002KT M01/M02 A303 RMK A01 T10101016  RH  096%=      5-min Rain = 0
KLE1 081142Z 33002KT M01/M02 A303 RMK A01 T10101016  RH  096%=      5-min Rain = 0
KLE1 081143Z 33002KT M01/M02 A303 RMK A01 T10101016  RH  096%=      5-min Rain = 0
KLE1 081144Z 32002KT M01/M02 A3031 RMK A01 T10101016  RH  096%=      5-min Rain = 0
KLE1 081145Z 32002KT M01/M02 A3031 RMK A01 T10101016  RH  096%=      5-min Rain = 0
KLE1 081146Z 32002KT M01/M02 A3031 RMK A01 T10101016  RH  096%=      5-min Rain = 0
KLE1 081147Z 32002KT M01/M02 A3031 RMK A01 T10111016  RH  096%=      5-min Rain = 0
KLE1 081148Z 31002KT M01/M02 A3031 RMK A01 T10111016  RH  096%=      5-min Rain = 0
KLE1 081149Z 31002KT M01/M02 A3031 RMK A01 T10111016  RH  096%=      5-min Rain = 0
KLE1 081150Z 30002KT M01/M02 A3031 RMK A01 T10101016  RH  096%=      5-min Rain = 0
KLE1 081151Z 30002KT M01/M02 A3031 RMK A01 T10101016  RH  096%=      5-min Rain = 0
KLE1 081152Z 30002KT M01/M02 A3031 RMK A01 T10111016  RH  096%=      5-min Rain = 0
KLE1 081153Z 30002KT M01/M02 A3031 RMK A01 T10101016  RH  096%=      5-min Rain = 0
KLE1 081154Z 28002KT M01/M02 A3031 RMK A01 T10111016  RH  096%=      5-min Rain = 0
KLE1 081155Z 27002KT M01/M02 A3031 RMK A01 T10111016  RH  096%=      5-min Rain = 0
KLE1 081156Z 28002KT M01/M02 A3031 RMK A01 T10111016  RH  096%=      5-min Rain = 0
KLE1 081157Z 28002KT M01/M02 A3031 RMK A01 T10101016  RH  096%=      5-min Rain = 0
KLE1 081158Z 28002KT M01/M02 A3031 RMK A01 T10111016  RH  096%=      5-min Rain = 0
KLE1 081159Z 27002KT M01/M02 A3031 RMK A01 T10101015  RH  096%=      5-min Rain = 0
KLE1 081200Z 27002KT M01/M02 A3031 RMK A01 T10111016  RH  096%=      5-min Rain = 0
KLE1 081201Z 28001KT M01/M02 A3031 RMK A01 T10111016  RH  096%=      5-min Rain = 0
KLE1 081202Z 28002KT M01/M02 A3031 RMK A01 T10111016  RH  096%=      5-min Rain = 0
KLE1 081203Z 28001KT M01/M02 A3031 RMK A01 T10111016  RH  097%=      5-min Rain = 0
KLE1 081204Z 28001KT M01/M02 A3031 RMK A01 T10111016  RH  097%=      5-min Rain = 0
KLE1 081205Z 28002KT M01/M02 A3031 RMK A01 T10111016  RH  097%=      5-min Rain = 0
KLE1 081206Z 29002KT M01/M02 A3031 RMK A01 T10111016  RH  097%=      5-min Rain = 0
KLE1 081207Z 30002KT M01/M02 A3031 RMK A01 T10111016  RH  097%=      5-min Rain = 0
KLE1 081208Z 29002KT M01/M02 A3031 RMK A01 T10111016  RH  097%=      5-min Rain = 0
KLE1 081209Z 29002KT M01/M02 A3031 RMK A01 T10121016  RH  097%=      5-min Rain = 0
KLE1 081210Z 29002KT M01/M02 A3031 RMK A01 T10121016  RH  097%=      5-min Rain = 0
KLE1 081211Z 30002KT M01/M02 A3031 RMK A01 T10111016  RH  097%=      5-min Rain = 0
KLE1 081212Z 31002KT M01/M02 A3031 RMK A01 T10121016  RH  097%=      5-min Rain = 0
KLE1 081213Z 30003KT M01/M02 A3031 RMK A01 T10121016  RH  097%=      5-min Rain = 0
KLE1 081214Z 31003KT M01/M02 A3031 RMK A01 T10111016  RH  097%=      5-min Rain = 0
KLE1 081215Z 31003KT M01/M02 A3031 RMK A01 T10121016  RH  097%=      5-min Rain = 0
KLE1 081216Z 30003KT M01/M02 A3031 RMK A01 T10121016  RH  097%=      5-min Rain = 0
KLE1 081217Z 30003KT M01/M02 A3031 RMK A01 T10111016  RH  097%=      5-min Rain = 0
KLE1 081218Z 31003KT M01/M02 A3031 RMK A01 T10111016  RH  097%=      5-min Rain = 0
KLE1 081219Z 31003KT M01/M02 A3031 RMK A01 T10121016  RH  097%=      5-min Rain = 0
KLE1 081220Z 31003KT M01/M02 A3031 RMK A01 T10111015  RH  097%=      5-min Rain = 0
KLE1 081221Z 31003KT M01/M02 A3031 RMK A01 T10121015  RH  097%=      5-min Rain = 0
KLE1 081222Z 31003KT M01/M02 A3031 RMK A01 T10111015  RH  097%=      5-min Rain = 0
KLE1 081223Z 31003KT M01/M02 A3031 RMK A01 T10111015  RH  097%=      5-min Rain = 0
KLE1 081224Z 30003KT M01/M02 A3031 RMK A01 T10111015  RH  097%=      5-min Rain = 0
KLE1 081225Z 30003KT M01/M02 A3031 RMK A01 T10111015  RH  097%=      5-min Rain = 0
KLE1 081226Z 30003KT M01/M02 A3031 RMK A01 T10111015  RH  097%=      5-min Rain = 0
KLE1 081227Z 29003KT M01/M02 A3031 RMK A01 T10121015  RH  097%=      5-min Rain = 0
KLE1 081228Z 29003KT M01/M02 A3031 RMK A01 T10121015  RH  097%=      5-min Rain = 0
KLE1 081229Z 28003KT M01/M02 A3031 RMK A01 T10121015  RH  097%=      5-min Rain = 0
KLE1 081230Z 28003KT M01/M02 A3031 RMK A01 T10111015  RH  097%=      5-min Rain = 0
KLE1 081231Z 28003KT M01/M02 A3031 RMK A01 T10121015  RH  097%=      5-min Rain = 0
KLE1 081232Z 28003KT M01/M02 A3031 RMK A01 T10111015  RH  097%=      5-min Rain = 0
KLE1 081233Z 28003KT M01/M02 A3031 RMK A01 T10121015  RH  097%=      5-min Rain = 0
KLE1 081234Z 28003KT M01/M02 A3031 RMK A01 T10111015  RH  097%=      5-min Rain = 0
KLE1 081235Z 28004KT M01/M01 A3031 RMK A01 T10111014  RH  097%=      5-min Rain = 0
KLE1 081236Z 28004KT M01/M01 A3031 RMK A01 T10111014  RH  098%=      5-min Rain = 0
KLE1 081237Z 28004KT M01/M01 A3031 RMK A01 T10111014  RH  098%=      5-min Rain = 0
KLE1 081238Z 28004KT M01/M01 A3031 RMK A01 T10111014  RH  098%=      5-min Rain = 0
KLE1 081239Z 28004KT M01/M01 A3031 RMK A01 T10111014  RH  098%=      5-min Rain = 0
KLE1 081240Z 28004KT M01/M01 A3031 RMK A01 T10111014  RH  098%=      5-min Rain = 0
KLE1 081241Z 28004KT M01/M01 A3031 RMK A01 T10111014  RH  098%=      5-min Rain = 0
KLE1 081242Z 28004KT M01/M02 A3031 RMK A01 T10111015  RH  098%=      5-min Rain = 0
KLE1 081243Z 28004KT M01/M01 A3031 RMK A01 T10111014  RH  098%=      5-min Rain = 0
KLE1 081244Z 28004KT M01/M01 A3031 RMK A01 T10111014  RH  098%=      5-min Rain = 0
KLE1 081245Z 28004KT M01/M01 A3031 RMK A01 T10111014  RH  098%=      5-min Rain = 0
KLE1 081246Z 29005KT M01/M01 A3031 RMK A01 T10111014  RH  098%=      5-min Rain = 0
KLE1 081247Z 29005KT M01/M01 A3031 RMK A01 T10111014  RH  098%=      5-min Rain = 0
KLE1 081248Z 29005KT M01/M01 A3031 RMK A01 T10111014  RH  098%=      5-min Rain = 0
KLE1 081249Z 29004KT M01/M01 A3031 RMK A01 T10111014  RH  098%=      5-min Rain = 0
KLE1 081250Z 29005KT M01/M02 A3031 RMK A01 T10111015  RH  098%=      5-min Rain = 0
KLE1 081251Z 29005KT M01/M01 A3031 RMK A01 T10111014  RH  098%=      5-min Rain = 0
KLE1 081252Z 29005KT M01/M01 A3031 RMK A01 T10111014  RH  098%=      5-min Rain = 0
KLE1 081253Z 29005KT M01/M02 A3031 RMK A01 T10111015  RH  098%=      5-min Rain = 0
KLE1 081254Z 29004KT M01/M01 A3031 RMK A01 T10111014  RH  098%=      5-min Rain = 0
KLE1 081255Z 29005KT M01/M01 A3031 RMK A01 T10111014  RH  098%=      5-min Rain = 0
KLE1 081256Z 29005KT M01/M01 A3032 RMK A01 T10111014  RH  098%=      5-min Rain = 0
KLE1 081257Z 29005KT M01/M01 A3032 RMK A01 T10111014  RH  098%=      5-min Rain = 0
KLE1 081258Z 29005KT M01/M01 A3032 RMK A01 T10111014  RH  098%=      5-min Rain = 0
KLE1 081259Z 29004KT M01/M01 A3032 RMK A01 T10111014  RH  098%=      5-min Rain = 0
KLE1 081300Z 29004KT M01/M01 A3031 RMK A01 T10111014  RH  098%=      5-min Rain = 0
KLE1 081301Z 29004KT M01/M01 A3031 RMK A01 T10111014  RH  098%=      5-min Rain = 0
KLE1 081302Z 29004KT M01/M01 A3031 RMK A01 T10111014  RH  098%=      5-min Rain = 0
KLE1 081303Z 29004KT M01/M01 A3031 RMK A01 T10111014  RH  098%=      5-min Rain = 0
KLE1 081304Z 29004KT M01/M01 A3031 RMK A01 T10111014  RH  098%=      5-min Rain = 0
KLE1 081305Z 29004KT M01/M01 A3032 RMK A01 T10111014  RH  098%=      5-min Rain = 0
KLE1 081306Z 28004KT M01/M01 A3032 RMK A01 T10111014  RH  098%=      5-min Rain = 0
KLE1 081307Z 28004KT M01/M01 A3032 RMK A01 T10111014  RH  098%=      5-min Rain = 0
KLE1 081308Z 27004KT M01/M01 A3032 RMK A01 T10111014  RH  098%=      5-min Rain = 0
KLE1 081309Z 28004KT M01/M01 A3032 RMK A01 T10111014  RH  098%=      5-min Rain = 0
KLE1 081310Z 28004KT M01/M01 A3032 RMK A01 T10111014  RH  098%=      5-min Rain = 0
KLE1 081311Z 28004KT M01/M01 A3032 RMK A01 T10111014  RH  098%=      5-min Rain = 0
KLE1 081312Z 28003KT M01/M01 A3032 RMK A01 T10111014  RH  098%=      5-min Rain = 0
KLE1 081313Z 28003KT M01/M01 A3032 RMK A01 T10111014  RH  098%=      5-min Rain = 0
KLE1 081314Z 28004KT M01/M01 A3032 RMK A01 T10101013  RH  098%=      5-min Rain = 0
KLE1 081315Z 29004KT M01/M01 A3032 RMK A01 T10101013  RH  098%=      5-min Rain = 0
KLE1 081316Z 29003KT M01/M01 A3032 RMK A01 T10101013  RH  098%=      5-min Rain = 0
KLE1 081317Z 29003KT M01/M01 A3031 RMK A01 T10101014  RH  098%=      5-min Rain = 0
KLE1 081318Z 29003KT M01/M01 A3031 RMK A01 T10101014  RH  098%=      5-min Rain = 0
KLE1 081319Z 29004KT M01/M01 A3031 RMK A01 T10101013  RH  098%=      5-min Rain = 0
KLE1 081320Z 29004KT M01/M01 A3031 RMK A01 T10101014  RH  098%=      5-min Rain = 0
KLE1 081321Z 28004KT M01/M01 A3031 RMK A01 T10101013  RH  098%=      5-min Rain = 0
KLE1 081322Z 29004KT M01/M01 A3031 RMK A01 T10101013  RH  098%=      5-min Rain = 0
KLE1 081323Z 30004KT M01/M01 A3031 RMK A01 T10101013  RH  098%=      5-min Rain = 0
KLE1 081324Z 31004KT M01/M01 A3031 RMK A01 T10101013  RH  098%=      5-min Rain = 0
KLE1 081325Z 30003KT M01/M01 A3031 RMK A01 T10101013  RH  098%=      5-min Rain = 0
KLE1 081326Z 30003KT M01/M01 A3031 RMK A01 T10101013  RH  098%=      5-min Rain = 0
KLE1 081327Z 29003KT M01/M01 A3031 RMK A01 T10101013  RH  098%=      5-min Rain = 0
KLE1 081328Z 29004KT M01/M01 A3031 RMK A01 T10101014  RH  098%=      5-min Rain = 0
KLE1 081329Z 29003KT M01/M01 A3031 RMK A01 T10101014  RH  098%=      5-min Rain = 0
KLE1 081330Z 29003KT M01/M01 A3031 RMK A01 T10101014  RH  098%=      5-min Rain = 0
KLE1 081331Z 29003KT M01/M01 A3031 RMK A01 T10101014  RH  098%=      5-min Rain = 0
KLE1 081332Z 28002KT M01/M01 A3031 RMK A01 T10101014  RH  098%=      5-min Rain = 0
KLE1 081333Z 29002KT M01/M01 A3031 RMK A01 T10101013  RH  098%=      5-min Rain = 0
KLE1 081334Z 29002KT M01/M01 A3032 RMK A01 T10101013  RH  098%=      5-min Rain = 0
KLE1 081335Z 28003KT M01/M01 A3032 RMK A01 T10101013  RH  098%=      5-min Rain = 0
KLE1 081336Z 28002KT M01/M01 A3032 RMK A01 T10101013  RH  098%=      5-min Rain = 0
KLE1 081337Z 28002KT M01/M01 A3032 RMK A01 T10101013  RH  098%=      5-min Rain = 0
KLE1 081338Z 26002KT M01/M01 A3032 RMK A01 T10101013  RH  098%=      5-min Rain = 0
KLE1 081339Z 26002KT M01/M01 A3032 RMK A01 T10101013  RH  098%=      5-min Rain = 0
KLE1 081340Z 26003KT M01/M01 A3032 RMK A01 T10101013  RH  098%=      5-min Rain = 0
KLE1 081341Z 26003KT M01/M01 A3032 RMK A01 T10091013  RH  098%=      5-min Rain = 0
KLE1 081342Z 26002KT M01/M01 A3032 RMK A01 T10091013  RH  098%=      5-min Rain = 0
KLE1 081343Z 27002KT M01/M01 A3032 RMK A01 T10091013  RH  098%=      5-min Rain = 0
KLE1 081344Z 28002KT M01/M01 A3032 RMK A01 T10091013  RH  098%=      5-min Rain = 0
KLE1 081345Z 28002KT M01/M01 A3032 RMK A01 T10091013  RH  098%=      5-min Rain = 0
KLE1 081346Z 28002KT M01/M01 A3032 RMK A01 T10091013  RH  098%=      5-min Rain = 0
KLE1 081347Z 28002KT M01/M01 A3032 RMK A01 T10091013  RH  097%=      5-min Rain = 0
KLE1 081348Z 29002KT M01/M01 A3032 RMK A01 T10091013  RH  097%=      5-min Rain = 0
KLE1 081349Z 29001KT M01/M01 A3032 RMK A01 T10091013  RH  098%=      5-min Rain = 0
KLE1 081350Z 29001KT M01/M01 A3032 RMK A01 T10091012  RH  097%=      5-min Rain = 0
KLE1 081351Z 28001KT M01/M01 A3032 RMK A01 T10091012  RH  097%=      5-min Rain = 0
KLE1 081352Z 28001KT M01/M01 A3032 RMK A01 T10091012  RH  097%=      5-min Rain = 0
KLE1 081353Z 30002KT M01/M01 A3032 RMK A01 T10091012  RH  097%=      5-min Rain = 0
KLE1 081354Z 29001KT M01/M01 A3032 RMK A01 T10091012  RH  097%=      5-min Rain = 0
KLE1 081355Z 28001KT M01/M01 A3032 RMK A01 T10091013  RH  097%=      5-min Rain = 0
KLE1 081356Z 29001KT M01/M01 A3032 RMK A01 T10091013  RH  097%=      5-min Rain = 0
KLE1 081357Z 31001KT M01/M01 A3032 RMK A01 T10091013  RH  097%=      5-min Rain = 0
KLE1 081358Z 30000KT M01/M01 A3032 RMK A01 T10091013  RH  097%=      5-min Rain = 0
KLE1 081359Z 30000KT M01/M01 A3032 RMK A01 T10091013  RH  097%=      5-min Rain = 0
KLE1 081400Z 00000KT M01/M01 A3032 RMK A01 T10081013  RH  096%=      5-min Rain = 0
KLE1 081401Z 00000KT M01/M01 A3033 RMK A01 T10081013  RH  096%=      5-min Rain = 0
KLE1 081402Z 24000KT M01/M01 A3033 RMK A01 T10081014  RH  096%=      5-min Rain = 0
KLE1 081403Z 14001KT M01/M01 A3033 RMK A01 T10081013  RH  096%=      5-min Rain = 0
KLE1 081404Z 14001KT M01/M01 A3033 RMK A01 T10071013  RH  096%=      5-min Rain = 0
KLE1 081405Z 15002KT M01/M01 A3033 RMK A01 T10071012  RH  096%=      5-min Rain = 0
KLE1 081406Z 16003KT M01/M01 A3033 RMK A01 T10071012  RH  096%=      5-min Rain = 0
KLE1 081407Z 16003KT M01/M01 A3033 RMK A01 T10071012  RH  096%=      5-min Rain = 0
KLE1 081408Z 16003KT M01/M01 A3033 RMK A01 T10071012  RH  096%=      5-min Rain = 0
KLE1 081409Z 16003KT M01/M01 A3033 RMK A01 T10071012  RH  096%=      5-min Rain = 0
KLE1 081410Z 16003KT M01/M01 A3033 RMK A01 T10071012  RH  097%=      5-min Rain = 0
KLE1 081411Z 17003KT M01/M01 A3033 RMK A01 T10071012  RH  097%=      5-min Rain = 0
KLE1 081412Z 16004KT M01/M01 A3033 RMK A01 T10071012  RH  097%=      5-min Rain = 0
KLE1 081413Z 16004KT M01/M01 A3033 RMK A01 T10081012  RH  097%=      5-min Rain = 0
KLE1 081414Z 17004KT M01/M01 A3033 RMK A01 T10081012  RH  097%=      5-min Rain = 0
KLE1 081415Z 17004KT M01/M01 A3033 RMK A01 T10081012  RH  097%=      5-min Rain = 0
KLE1 081416Z 17004KT M01/M01 A3033 RMK A01 T10081012  RH  097%=      5-min Rain = 0
KLE1 081417Z 17004KT M01/M01 A3033 RMK A01 T10081012  RH  097%=      5-min Rain = 0
KLE1 081418Z 17004KT M01/M01 A3034 RMK A01 T10081012  RH  097%=      5-min Rain = 0
KLE1 081419Z 17004KT M01/M01 A3034 RMK A01 T10081012  RH  097%=      5-min Rain = 0
KLE1 081420Z 17004KT M01/M01 A3034 RMK A01 T10081012  RH  097%=      5-min Rain = 0
KLE1 081421Z 17004KT M01/M01 A3034 RMK A01 T10081012  RH  097%=      5-min Rain = 0
KLE1 081422Z 17004KT M01/M01 A3034 RMK A01 T10081012  RH  097%=      5-min Rain = 0
KLE1 081423Z 18004KT M01/M01 A3034 RMK A01 T10081012  RH  097%=      5-min Rain = 0
KLE1 081424Z 18003KT M01/M01 A3034 RMK A01 T10081013  RH  097%=      5-min Rain = 0
KLE1 081425Z 18004KT M01/M01 A3034 RMK A01 T10081012  RH  097%=      5-min Rain = 0
KLE1 081426Z 18004KT M01/M01 A3034 RMK A01 T10081012  RH  097%=      5-min Rain = 0
KLE1 081427Z 18003KT M01/M01 A3034 RMK A01 T10081012  RH  097%=      5-min Rain = 0
KLE1 081428Z 19003KT M01/M01 A3034 RMK A01 T10081012  RH  097%=      5-min Rain = 0
KLE1 081429Z 19003KT M01/M01 A3034 RMK A01 T10081012  RH  097%=      5-min Rain = 0
KLE1 081430Z 19003KT M01/M01 A3034 RMK A01 T10081012  RH  097%=      5-min Rain = 0
KLE1 081431Z 18003KT M01/M01 A3034 RMK A01 T10081012  RH  097%=      5-min Rain = 0
KLE1 081432Z 18003KT M01/M01 A3034 RMK A01 T10081012  RH  097%=      5-min Rain = 0
KLE1 081433Z 19003KT M01/M01 A3034 RMK A01 T10081012  RH  097%=      5-min Rain = 0
KLE1 081434Z 19003KT M01/M01 A3034 RMK A01 T10081012  RH  097%=      5-min Rain = 0
KLE1 081435Z 19003KT M01/M01 A3034 RMK A01 T10081012  RH  097%=      5-min Rain = 0
KLE1 081436Z 19003KT M01/M01 A3034 RMK A01 T10081012  RH  097%=      5-min Rain = 0
KLE1 081437Z 19002KT M01/M01 A3034 RMK A01 T10081012  RH  097%=      5-min Rain = 0
KLE1 081438Z 20002KT M01/M01 A3034 RMK A01 T10081012  RH  097%=      5-min Rain = 0
KLE1 081439Z 20002KT M01/M01 A3034 RMK A01 T10081012  RH  097%=      5-min Rain = 0
KLE1 081440Z 20001KT M01/M01 A3034 RMK A01 T10081012  RH  097%=      5-min Rain = 0
KLE1 081441Z 20001KT M01/M01 A3034 RMK A01 T10081012  RH  097%=      5-min Rain = 0
KLE1 081442Z 20001KT M01/M01 A3034 RMK A01 T10081012  RH  097%=      5-min Rain = 0
KLE1 081443Z 19001KT M01/M01 A3034 RMK A01 T10091012  RH  097%=      5-min Rain = 0
KLE1 081444Z 19001KT M01/M01 A3034 RMK A01 T10081012  RH  098%=      5-min Rain = 0
KLE1 081445Z 20001KT M01/M01 A3034 RMK A01 T10081012  RH  098%=      5-min Rain = 0
KLE1 081446Z 21001KT M01/M01 A3034 RMK A01 T10081012  RH  098%=      5-min Rain = 0
KLE1 081447Z 22001KT M01/M01 A3034 RMK A01 T10081012  RH  097%=      5-min Rain = 0
KLE1 081448Z 22001KT M01/M01 A3034 RMK A01 T10081012  RH  097%=      5-min Rain = 0
KLE1 081449Z 22001KT M01/M01 A3034 RMK A01 T10081012  RH  098%=      5-min Rain = 0
KLE1 081450Z 22001KT M01/M01 A3034 RMK A01 T10081011  RH  098%=      5-min Rain = 0
KLE1 081451Z 22001KT M01/M01 A3034 RMK A01 T10081012  RH  098%=      5-min Rain = 0
KLE1 081452Z 23001KT M01/M01 A3034 RMK A01 T10081012  RH  098%=      5-min Rain = 0
KLE1 081453Z 23001KT M01/M01 A3034 RMK A01 T10081012  RH  098%=      5-min Rain = 0
KLE1 081454Z 25001KT M01/M01 A3034 RMK A01 T10081012  RH  098%=      5-min Rain = 0
KLE1 081455Z 25001KT M01/M01 A3034 RMK A01 T10081011  RH  098%=      5-min Rain = 0
KLE1 081456Z 25001KT M01/M01 A3034 RMK A01 T10081011  RH  098%=      5-min Rain = 0
KLE1 081457Z 25001KT M01/M01 A3034 RMK A01 T10081011  RH  098%=      5-min Rain = 0
KLE1 081458Z 25001KT M01/M01 A3034 RMK A01 T10081011  RH  098%=      5-min Rain = 0
KLE1 081459Z 25001KT M01/M01 A3034 RMK A01 T10081011  RH  097%=      5-min Rain = 0
KLE1 081500Z 25001KT M01/M01 A3034 RMK A01 T10081012  RH  098%=      5-min Rain = 0
KLE1 081501Z 25001KT M01/M01 A3034 RMK A01 T10071011  RH  098%=      5-min Rain = 0
KLE1 081502Z 25001KT M01/M01 A3034 RMK A01 T10071011  RH  098%=      5-min Rain = 0
KLE1 081503Z 25001KT M01/M01 A3034 RMK A01 T10071011  RH  097%=      5-min Rain = 0
KLE1 081504Z 26001KT M01/M01 A3034 RMK A01 T10071011  RH  097%=      5-min Rain = 0
KLE1 081505Z 26001KT M01/M01 A3034 RMK A01 T10081011  RH  097%=      5-min Rain = 0
KLE1 081506Z 26002KT M01/M01 A3034 RMK A01 T10071011  RH  097%=      5-min Rain = 0
KLE1 081507Z 26001KT M01/M01 A3034 RMK A01 T10081011  RH  097%=      5-min Rain = 0
KLE1 081508Z 27001KT M01/M01 A3034 RMK A01 T10081011  RH  097%=      5-min Rain = 0
KLE1 081509Z 27001KT M01/M01 A3035 RMK A01 T10071011  RH  097%=      5-min Rain = 0
KLE1 081510Z 27002KT M01/M01 A3035 RMK A01 T10071010  RH  097%=      5-min Rain = 0
KLE1 081511Z 27002KT M01/M01 A3035 RMK A01 T10071011  RH  097%=      5-min Rain = 0
KLE1 081512Z 29002KT M01/M01 A3035 RMK A01 T10071010  RH  097%=      5-min Rain = 0
KLE1 081513Z 29002KT M01/M01 A3035 RMK A01 T10071010  RH  097%=      5-min Rain = 0
KLE1 081514Z 29002KT M01/M01 A3035 RMK A01 T10071011  RH  097%=      5-min Rain = 0
KLE1 081515Z 29002KT M01/M01 A3035 RMK A01 T10071011  RH  097%=      5-min Rain = 0
KLE1 081516Z 29002KT M01/M01 A3035 RMK A01 T10071010  RH  097%=      5-min Rain = 0
KLE1 081517Z 29002KT M01/M01 A3035 RMK A01 T10071011  RH  097%=      5-min Rain = 0
KLE1 081518Z 29002KT M01/M01 A3035 RMK A01 T10071010  RH  097%=      5-min Rain = 0
KLE1 081519Z 28002KT M01/M01 A3035 RMK A01 T10061010  RH  097%=      5-min Rain = 0
KLE1 081520Z 28002KT M01/M01 A3035 RMK A01 T10061010  RH  097%=      5-min Rain = 0
KLE1 081521Z 28002KT M01/M01 A3035 RMK A01 T10061010  RH  097%=      5-min Rain = 0
KLE1 081522Z 28002KT M01/M01 A3035 RMK A01 T10061010  RH  097%=      5-min Rain = 0
KLE1 081523Z 28002KT M01/M01 A3035 RMK A01 T10071010  RH  097%=      5-min Rain = 0
KLE1 081524Z 28002KT M01/M01 A3035 RMK A01 T10071010  RH  097%=      5-min Rain = 0
KLE1 081525Z 29002KT M01/M01 A3035 RMK A01 T10061010  RH  097%=      5-min Rain = 0
KLE1 081526Z 29002KT M01/M01 A3035 RMK A01 T10061010  RH  097%=      5-min Rain = 0
KLE1 081527Z 29002KT M01/M01 A3035 RMK A01 T10061009  RH  097%=      5-min Rain = 0
KLE1 081528Z 29002KT M01/M01 A3035 RMK A01 T10061010  RH  097%=      5-min Rain = 0
KLE1 081529Z 30002KT M01/M01 A3035 RMK A01 T10061009  RH  097%=      5-min Rain = 0
KLE1 081530Z 29002KT M01/M01 A3035 RMK A01 T10051009  RH  097%=      5-min Rain = 0
KLE1 081531Z 28001KT M01/M01 A3035 RMK A01 T10061009  RH  097%=      5-min Rain = 0
KLE1 081532Z 29002KT M01/M01 A3035 RMK A01 T10051009  RH  097%=      5-min Rain = 0
KLE1 081533Z 30002KT M01/M01 A3035 RMK A01 T10051009  RH  097%=      5-min Rain = 0
KLE1 081534Z 29002KT M01/M01 A3035 RMK A01 T10051009  RH  097%=      5-min Rain = 0
KLE1 081535Z 31002KT M01/M01 A3035 RMK A01 T10051009  RH  097%=      5-min Rain = 0
KLE1 081536Z 31002KT M01/M01 A3035 RMK A01 T10051010  RH  097%=      5-min Rain = 0
KLE1 081537Z 30002KT M01/M01 A3035 RMK A01 T10051009  RH  097%=      5-min Rain = 0
KLE1 081538Z 29002KT M00/M01 A3035 RMK A01 T10041009  RH  097%=      5-min Rain = 0
KLE1 081539Z 29002KT M00/M01 A3035 RMK A01 T10041009  RH  097%=      5-min Rain = 0
KLE1 081540Z 29002KT M00/M01 A3035 RMK A01 T10041009  RH  097%=      5-min Rain = 0
KLE1 081541Z 29002KT M00/M01 A3035 RMK A01 T10041009  RH  097%=      5-min Rain = 0
KLE1 081542Z 30002KT M00/M01 A3035 RMK A01 T10041009  RH  096%=      5-min Rain = 0
KLE1 081543Z 29003KT M00/M01 A3035 RMK A01 T10031008  RH  096%=      5-min Rain = 0
KLE1 081544Z 30002KT M00/M01 A3035 RMK A01 T10031009  RH  096%=      5-min Rain = 0
KLE1 081545Z 28002KT M00/M01 A3035 RMK A01 T10031009  RH  096%=      5-min Rain = 0
KLE1 081546Z 28002KT M00/M01 A3036 RMK A01 T10031009  RH  096%=      5-min Rain = 0
KLE1 081547Z 28002KT M00/M01 A3036 RMK A01 T10031009  RH  096%=      5-min Rain = 0
KLE1 081548Z 29002KT M00/M01 A3036 RMK A01 T10021008  RH  096%=      5-min Rain = 0
KLE1 081549Z 28002KT M00/M01 A3036 RMK A01 T10021008  RH  096%=      5-min Rain = 0
KLE1 081550Z 28002KT M00/M01 A3036 RMK A01 T10021008  RH  096%=      5-min Rain = 0
KLE1 081551Z 28002KT M00/M01 A3036 RMK A01 T10021008  RH  096%=      5-min Rain = 0
KLE1 081552Z 29003KT M00/M01 A3036 RMK A01 T10021008  RH  096%=      5-min Rain = 0
KLE1 081553Z 29003KT M00/M01 A3036 RMK A01 T10021008  RH  096%=      5-min Rain = 0
KLE1 081554Z 29002KT M00/M01 A3036 RMK A01 T10021008  RH  096%=      5-min Rain = 0
KLE1 081555Z 29003KT M00/M01 A3036 RMK A01 T10021008  RH  096%=      5-min Rain = 0
KLE1 081556Z 29002KT M00/M01 A3036 RMK A01 T10021007  RH  096%=      5-min Rain = 0
KLE1 081557Z 29003KT M00/M01 A3036 RMK A01 T10021008  RH  096%=      5-min Rain = 0
KLE1 081558Z 30003KT M00/M01 A3036 RMK A01 T10021008  RH  096%=      5-min Rain = 0
KLE1 081559Z 30002KT M00/M01 A3036 RMK A01 T10021008  RH  096%=      5-min Rain = 0
KLE1 081600Z 29002KT M00/M01 A3036 RMK A01 T10021007  RH  096%=      5-min Rain = 0
KLE1 081601Z 29003KT M00/M01 A3036 RMK A01 T10021007  RH  096%=      5-min Rain = 0
KLE1 081602Z 29002KT M00/M01 A3036 RMK A01 T10021007  RH  096%=      5-min Rain = 0
KLE1 081603Z 30002KT M00/M01 A3036 RMK A01 T10011007  RH  096%=      5-min Rain = 0
KLE1 081604Z 31001KT M00/M01 A3036 RMK A01 T10021007  RH  096%=      5-min Rain = 0
KLE1 081605Z 31002KT M00/M01 A3036 RMK A01 T10021007  RH  096%=      5-min Rain = 0
KLE1 081606Z 35002KT M00/M01 A3036 RMK A01 T10021007  RH  096%=      5-min Rain = 0
KLE1 081607Z 35002KT M00/M01 A3036 RMK A01 T10011007  RH  096%=      5-min Rain = 0
KLE1 081608Z 00003KT M00/M01 A3036 RMK A01 T10021008  RH  096%=      5-min Rain = 0
KLE1 081609Z 35003KT M00/M01 A3036 RMK A01 T10021010  RH  094%=      5-min Rain = 0
KLE1 081610Z 34002KT M00/M02 A3036 RMK A01 T10021015  RH  091%=      5-min Rain = 0
KLE1 081611Z 01003KT M00/M02 A3036 RMK A01 T10021017  RH  089%=      5-min Rain = 0
KLE1 081612Z 01004KT M00/M02 A3036 RMK A01 T10011021  RH  087%=      5-min Rain = 0
KLE1 081613Z 36003KT 00/03 A3036 RMK A01 T00-00-28  RH  081%=      5-min Rain = 0
KLE1 081614Z 01003KT 00/M03 A3036 RMK A01 T00011031  RH  079%=      5-min Rain = 0
KLE1 081615Z 36004KT 00/M03 A3036 RMK A01 T00011032  RH  078%=      5-min Rain = 0
KLE1 081616Z 00003KT 00/M03 A3036 RMK A01 T00021034  RH  077%=      5-min Rain = 0
KLE1 081617Z 00003KT 00/M03 A3036 RMK A01 T00021031  RH  078%=      5-min Rain = 0
KLE1 081618Z 00003KT 00/M03 A3036 RMK A01 T00021029  RH  079%=      5-min Rain = 0
KLE1 081619Z 35003KT 00/M03 A3036 RMK A01 T00021030  RH  079%=      5-min Rain = 0
KLE1 081620Z 35002KT 00/M03 A3036 RMK A01 T00021030  RH  079%=      5-min Rain = 0
KLE1 081621Z 35003KT 00/M03 A3036 RMK A01 T00031031  RH  078%=      5-min Rain = 0
KLE1 081622Z 36003KT 00/M03 A3036 RMK A01 T00031034  RH  076%=      5-min Rain = 0
KLE1 081623Z 35003KT 00/M03 A3036 RMK A01 T00031034  RH  076%=      5-min Rain = 0
KLE1 081624Z 35003KT 00/M03 A3036 RMK A01 T00031032  RH  077%=      5-min Rain = 0
KLE1 081625Z 35003KT 00/M03 A3036 RMK A01 T00031031  RH  078%=      5-min Rain = 0
KLE1 081626Z 35003KT 00/M03 A3036 RMK A01 T00031031  RH  078%=      5-min Rain = 0
KLE1 081627Z 35002KT 00/M03 A3036 RMK A01 T00031030  RH  078%=      5-min Rain = 0
KLE1 081628Z 34003KT 00/M03 A3036 RMK A01 T00031028  RH  079%=      5-min Rain = 0
KLE1 081629Z 35002KT 00/M03 A3036 RMK A01 T00041030  RH  078%=      5-min Rain = 0
KLE1 081630Z 34002KT 00/M03 A3036 RMK A01 T00041032  RH  077%=      5-min Rain = 0
KLE1 081631Z 36002KT 00/M03 A3036 RMK A01 T00041029  RH  078%=      5-min Rain = 0
KLE1 081632Z 36004KT 00/M03 A3036 RMK A01 T00041032  RH  077%=      5-min Rain = 0
KLE1 081633Z 35003KT 00/M04 A3036 RMK A01 T00041041  RH  072%=      5-min Rain = 0
KLE1 081634Z 36003KT 00/M04 A3036 RMK A01 T00041038  RH  073%=      5-min Rain = 0
KLE1 081635Z 00003KT 00/M04 A3036 RMK A01 T00041038  RH  073%=      5-min Rain = 0
KLE1 081636Z 00003KT 00/M04 A3036 RMK A01 T00041040  RH  072%=      5-min Rain = 0
KLE1 081637Z 00003KT 00/M04 A3036 RMK A01 T00041039  RH  073%=      5-min Rain = 0
KLE1 081638Z 00002KT 01/M04 A3036 RMK A01 T00051037  RH  073%=      5-min Rain = 0
KLE1 081639Z 00003KT 01/M04 A3036 RMK A01 T00051036  RH  074%=      5-min Rain = 0
KLE1 081640Z 36003KT 01/M04 A3036 RMK A01 T00051037  RH  074%=      5-min Rain = 0
KLE1 081641Z 35003KT 01/M04 A3036 RMK A01 T00051037  RH  074%=      5-min Rain = 0
KLE1 081642Z 35003KT 01/M04 A3036 RMK A01 T00051038  RH  073%=      5-min Rain = 0
KLE1 081643Z 35003KT 01/M04 A3036 RMK A01 T00051039  RH  072%=      5-min Rain = 0
KLE1 081644Z 35002KT 01/M04 A3036 RMK A01 T00051040  RH  072%=      5-min Rain = 0
KLE1 081645Z 33002KT 01/M04 A3036 RMK A01 T00051039  RH  072%=      5-min Rain = 0
KLE1 081646Z 34003KT 01/M04 A3036 RMK A01 T00051038  RH  073%=      5-min Rain = 0
KLE1 081647Z 33002KT 01/M04 A3036 RMK A01 T00051040  RH  071%=      5-min Rain = 0
KLE1 081648Z 32002KT 01/M04 A3036 RMK A01 T00061039  RH  072%=      5-min Rain = 0
KLE1 081649Z 32002KT 01/M04 A3036 RMK A01 T00061041  RH  071%=      5-min Rain = 0
KLE1 081650Z 32003KT 01/M04 A3036 RMK A01 T00061040  RH  071%=      5-min Rain = 0
KLE1 081651Z 33003KT 01/M04 A3036 RMK A01 T00061042  RH  070%=      5-min Rain = 0
KLE1 081652Z 32003KT 01/M05 A3036 RMK A01 T00061047  RH  068%=      5-min Rain = 0
KLE1 081653Z 34004KT 01/M05 A3036 RMK A01 T00061046  RH  068%=      5-min Rain = 0
KLE1 081654Z 34005KT 01/M05 A3036 RMK A01 T00061046  RH  068%=      5-min Rain = 0
KLE1 081655Z 33004KT 01/M05 A3036 RMK A01 T00071047  RH  067%=      5-min Rain = 0
KLE1 081656Z 35004KT 01/M04 A3036 RMK A01 T00071043  RH  069%=      5-min Rain = 0
KLE1 081657Z 36003KT 01/M05 A3036 RMK A01 T00071046  RH  068%=      5-min Rain = 0
KLE1 081658Z 35003KT 01/M04 A3036 RMK A01 T00071042  RH  069%=      5-min Rain = 0
KLE1 081659Z 35003KT 01/M04 A3036 RMK A01 T00071040  RH  071%=      5-min Rain = 0
KLE1 081700Z 01003KT 01/M04 A3036 RMK A01 T00071039  RH  071%=      5-min Rain = 0
KLE1 081701Z 01003KT 01/M04 A3036 RMK A01 T00081040  RH  070%=      5-min Rain = 0
KLE1 081702Z 00002KT 01/M04 A3036 RMK A01 T00081042  RH  070%=      5-min Rain = 0
KLE1 081703Z 00002KT 01/M04 A3036 RMK A01 T00081041  RH  070%=      5-min Rain = 0
KLE1 081704Z 01002KT 01/M04 A3036 RMK A01 T00081042  RH  069%=      5-min Rain = 0
KLE1 081705Z 01003KT 01/M04 A3036 RMK A01 T00081042  RH  069%=      5-min Rain = 0
KLE1 081706Z 36003KT 01/M04 A3036 RMK A01 T00091039  RH  070%=      5-min Rain = 0
KLE1 081707Z 01003KT 01/M04 A3036 RMK A01 T00091042  RH  069%=      5-min Rain = 0
KLE1 081708Z 01004KT 01/M04 A3036 RMK A01 T00091043  RH  068%=      5-min Rain = 0
KLE1 081709Z 01004KT 01/M05 A3036 RMK A01 T00091046  RH  067%=      5-min Rain = 0
KLE1 081710Z 00004KT 01/M05 A3036 RMK A01 T00091048  RH  066%=      5-min Rain = 0
KLE1 081711Z 00004KT 01/M05 A3036 RMK A01 T00091049  RH  065%=      5-min Rain = 0
KLE1 081712Z 35003KT 01/M04 A3036 RMK A01 T00101042  RH  069%=      5-min Rain = 0
KLE1 081713Z 32004KT 01/M04 A3036 RMK A01 T00101039  RH  070%=      5-min Rain = 0
KLE1 081714Z 30003KT 01/M03 A3036 RMK A01 T00101031  RH  074%=      5-min Rain = 0
KLE1 081715Z 28002KT 01/M02 A3036 RMK A01 T00101022  RH  079%=      5-min Rain = 0
KLE1 081716Z 28003KT 01/M02 A3036 RMK A01 T00091017  RH  083%=      5-min Rain = 0
KLE1 081717Z 28003KT 01/M02 A3036 RMK A01 T00081016  RH  084%=      5-min Rain = 0
KLE1 081718Z 28002KT 01/M02 A3036 RMK A01 T00081017  RH  083%=      5-min Rain = 0
KLE1 081719Z 28002KT 01/M02 A3036 RMK A01 T00081016  RH  084%=      5-min Rain = 0
KLE1 081720Z 27002KT 01/M02 A3036 RMK A01 T00081019  RH  082%=      5-min Rain = 0
KLE1 081721Z 27003KT 01/M02 A3036 RMK A01 T00081021  RH  081%=      5-min Rain = 0
KLE1 081722Z 26003KT 01/M02 A3036 RMK A01 T00081021  RH  081%=      5-min Rain = 0
KLE1 081723Z 27004KT 01/M02 A3036 RMK A01 T00081020  RH  082%=      5-min Rain = 0
KLE1 081724Z 27003KT 01/M02 A3036 RMK A01 T00081019  RH  082%=      5-min Rain = 0
KLE1 081725Z 27004KT 01/M02 A3036 RMK A01 T00081017  RH  083%=      5-min Rain = 0
KLE1 081726Z 27004KT 01/M02 A3036 RMK A01 T00081019  RH  082%=      5-min Rain = 0
KLE1 081727Z 28004KT 01/M02 A3036 RMK A01 T00081023  RH  080%=      5-min Rain = 0.01
KLE1 081728Z 28003KT 01/M02 A3036 RMK A01 T00081024  RH  079%=      5-min Rain = 0
KLE1 081729Z 28004KT 01/M02 A3036 RMK A01 T00081024  RH  079%=      5-min Rain = 0
KLE1 081730Z 28004KT 01/M02 A3036 RMK A01 T00081020  RH  081%=      5-min Rain = 0
KLE1 081731Z 28004KT 01/M02 A3036 RMK A01 T00091017  RH  083%=      5-min Rain = 0
KLE1 081732Z 28004KT 01/M02 A3036 RMK A01 T00091021  RH  081%=      5-min Rain = 0
KLE1 081733Z 28004KT 01/M02 A3036 RMK A01 T00081021  RH  081%=      5-min Rain = 0
KLE1 081734Z 27004KT 01/M02 A3036 RMK A01 T00081019  RH  082%=      5-min Rain = 0
KLE1 081735Z 26004KT 01/M02 A3036 RMK A01 T00091018  RH  083%=      5-min Rain = 0
KLE1 081736Z 27004KT 01/M02 A3036 RMK A01 T00081015  RH  084%=      5-min Rain = 0
KLE1 081737Z 27005KT 01/M01 A3036 RMK A01 T00081013  RH  085%=      5-min Rain = 0
KLE1 081738Z 26005KT 01/M01 A3036 RMK A01 T00091013  RH  086%=      5-min Rain = 0
KLE1 081739Z 26005KT 01/M01 A3035 RMK A01 T00081014  RH  085%=      5-min Rain = 0
KLE1 081740Z 26005KT 01/M02 A3035 RMK A01 T00081015  RH  084%=      5-min Rain = 0
KLE1 081741Z 27005KT 01/M02 A3035 RMK A01 T00081015  RH  085%=      5-min Rain = 0.01
KLE1 081742Z 26004KT 01/M02 A3035 RMK A01 T00081016  RH  084%=      5-min Rain = 0
KLE1 081743Z 27005KT 01/M02 A3035 RMK A01 T00081016  RH  084%=      5-min Rain = 0
KLE1 081744Z 27004KT 01/M02 A3035 RMK A01 T00081017  RH  083%=      5-min Rain = 0
KLE1 081745Z 27004KT 01/M02 A3035 RMK A01 T00081018  RH  083%=      5-min Rain = 0
KLE1 081746Z 27005KT 01/M02 A3035 RMK A01 T00081018  RH  083%=      5-min Rain = 0
KLE1 081747Z 27004KT 01/M02 A3035 RMK A01 T00091020  RH  082%=      5-min Rain = 0
KLE1 081748Z 26004KT 01/M02 A3035 RMK A01 T00091021  RH  081%=      5-min Rain = 0
KLE1 081749Z 26004KT 01/M02 A3035 RMK A01 T00091020  RH  081%=      5-min Rain = 0
KLE1 081750Z 26005KT 01/M02 A3035 RMK A01 T00091020  RH  081%=      5-min Rain = 0.01
KLE1 081751Z 26004KT 01/M02 A3035 RMK A01 T00091019  RH  082%=      5-min Rain = 0
KLE1 081752Z 26004KT 01/M02 A3035 RMK A01 T00091019  RH  081%=      5-min Rain = 0
KLE1 081753Z 26004KT 01/M02 A3035 RMK A01 T00101018  RH  082%=      5-min Rain = 0
KLE1 081754Z 27004KT 01/M02 A3035 RMK A01 T00101019  RH  081%=      5-min Rain = 0
KLE1 081755Z 27004KT 01/M02 A3035 RMK A01 T00101017  RH  082%=      5-min Rain = 0.01
KLE1 081756Z 26004KT 01/M02 A3035 RMK A01 T00101016  RH  083%=      5-min Rain = 0
KLE1 081757Z 25004KT 01/M02 A3035 RMK A01 T00101016  RH  083%=      5-min Rain = 0
KLE1 081758Z 26004KT 01/M02 A3035 RMK A01 T00101017  RH  082%=      5-min Rain = 0.01
KLE1 081759Z 26004KT 01/M02 A3035 RMK A01 T00111017  RH  082%=      5-min Rain = 0
KLE1 081800Z 26005KT 01/M02 A3035 RMK A01 T00101019  RH  081%=      5-min Rain = 0
KLE1 081801Z 27005KT 01/M02 A3035 RMK A01 T00101021  RH  080%=      5-min Rain = 0
KLE1 081802Z 27004KT 01/M02 A3035 RMK A01 T00101023  RH  079%=      5-min Rain = 0
KLE1 081803Z 27004KT 01/M02 A3035 RMK A01 T00111023  RH  078%=      5-min Rain = 0.01
KLE1 081804Z 27004KT 01/M02 A3035 RMK A01 T00101023  RH  078%=      5-min Rain = 0
KLE1 081805Z 26004KT 01/M02 A3035 RMK A01 T00111024  RH  078%=      5-min Rain = 0
KLE1 081806Z 26004KT 01/M02 A3035 RMK A01 T00101022  RH  079%=      5-min Rain = 0
KLE1 081807Z 27005KT 01/M02 A3035 RMK A01 T00111020  RH  080%=      5-min Rain = 0
KLE1 081808Z 27005KT 01/M02 A3035 RMK A01 T00111022  RH  078%=      5-min Rain = 0.01
KLE1 081809Z 27004KT 01/M02 A3035 RMK A01 T00121022  RH  079%=      5-min Rain = 0
KLE1 081810Z 28004KT 01/M02 A3035 RMK A01 T00121021  RH  079%=      5-min Rain = 0
KLE1 081811Z 27004KT 01/M02 A3034 RMK A01 T00121021  RH  079%=      5-min Rain = 0
KLE1 081812Z 27005KT 01/M02 A3034 RMK A01 T00121019  RH  080%=      5-min Rain = 0
KLE1 081813Z 27005KT 01/M02 A3034 RMK A01 T00121019  RH  080%=      5-min Rain = 0
KLE1 081814Z 27004KT 01/M02 A3034 RMK A01 T00131023  RH  077%=      5-min Rain = 0.01
KLE1 081815Z 27004KT 01/M03 A3034 RMK A01 T00131026  RH  075%=      5-min Rain = 0
KLE1 081816Z 27004KT 01/M02 A3034 RMK A01 T00131023  RH  077%=      5-min Rain = 0
KLE1 081817Z 27005KT 01/M02 A3034 RMK A01 T00131024  RH  077%=      5-min Rain = 0
KLE1 081818Z 26004KT 01/M03 A3034 RMK A01 T00131026  RH  076%=      5-min Rain = 0
KLE1 081819Z 27004KT 01/M02 A3034 RMK A01 T00131024  RH  077%=      5-min Rain = 0
KLE1 081820Z 27003KT 01/M02 A3034 RMK A01 T00141019  RH  079%=      5-min Rain = 0.01
KLE1 081821Z 28004KT 01/M02 A3034 RMK A01 T00141023  RH  076%=      5-min Rain = 0
KLE1 081822Z 29003KT 02/M03 A3034 RMK A01 T00151034  RH  070%=      5-min Rain = 0
KLE1 081823Z 27003KT 01/M04 A3034 RMK A01 T00141035  RH  070%=      5-min Rain = 0
KLE1 081824Z 28004KT 01/M04 A3034 RMK A01 T00141037  RH  069%=      5-min Rain = 0
KLE1 081825Z 28004KT 01/M04 A3033 RMK A01 T00141036  RH  070%=      5-min Rain = 0
KLE1 081826Z 28004KT 01/M03 A3033 RMK A01 T00141031  RH  072%=      5-min Rain = 0.01
KLE1 081827Z 27004KT 01/M03 A3033 RMK A01 T00141030  RH  072%=      5-min Rain = 0
KLE1 081828Z 28004KT 02/M03 A3033 RMK A01 T00151025  RH  075%=      5-min Rain = 0
KLE1 081829Z 28005KT 02/M03 A3033 RMK A01 T00151027  RH  074%=      5-min Rain = 0
KLE1 081830Z 30005KT 01/M03 A3033 RMK A01 T00141027  RH  074%=      5-min Rain = 0
KLE1 081831Z 30004KT 02/M03 A3033 RMK A01 T00151028  RH  073%=      5-min Rain = 0
KLE1 081832Z 29004KT 02/M03 A3033 RMK A01 T00151027  RH  074%=      5-min Rain = 0.01
KLE1 081833Z 30004KT 02/M03 A3033 RMK A01 T00151031  RH  071%=      5-min Rain = 0
KLE1 081834Z 30004KT 02/M04 A3033 RMK A01 T00161035  RH  069%=      5-min Rain = 0
KLE1 081835Z 29005KT 02/M04 A3033 RMK A01 T00161037  RH  068%=      5-min Rain = 0
KLE1 081836Z 30003KT 02/M04 A3033 RMK A01 T00151044  RH  065%=      5-min Rain = 0
KLE1 081837Z 31004KT 02/M04 A3032 RMK A01 T00161036  RH  068%=      5-min Rain = 0
KLE1 081838Z 31005KT 02/M04 A3032 RMK A01 T00161043  RH  065%=      5-min Rain = 0.01
KLE1 081839Z 30005KT 02/M05 A3032 RMK A01 T00171048  RH  062%=      5-min Rain = 0
KLE1 081840Z 30005KT 02/M05 A3032 RMK A01 T00171045  RH  063%=      5-min Rain = 0
KLE1 081841Z 31005KT 02/M05 A3032 RMK A01 T00171047  RH  063%=      5-min Rain = 0
KLE1 081842Z 32004KT 02/M05 A3032 RMK A01 T00181048  RH  062%=      5-min Rain = 0
KLE1 081843Z 31003KT 02/M05 A3032 RMK A01 T00181046  RH  062%=      5-min Rain = 0
KLE1 081844Z 32004KT 02/M05 A3032 RMK A01 T00181047  RH  062%=      5-min Rain = 0
KLE1 081845Z 32004KT 02/M05 A3032 RMK A01 T00181047  RH  062%=      5-min Rain = 0
KLE1 081846Z 34004KT 02/M04 A3031 RMK A01 T00191042  RH  064%=      5-min Rain = 0
KLE1 081847Z 32004KT 02/M04 A3031 RMK A01 T00201040  RH  064%=      5-min Rain = 0
KLE1 081848Z 31004KT 02/M04 A3031 RMK A01 T00201044  RH  062%=      5-min Rain = 0
KLE1 081849Z 33005KT 02/M05 A3031 RMK A01 T00211049  RH  060%=      5-min Rain = 0
KLE1 081850Z 33005KT 02/M05 A3031 RMK A01 T00211053  RH  058%=      5-min Rain = 0
KLE1 081851Z 32004KT 02/M06 A3031 RMK A01 T00211057  RH  056%=      5-min Rain = 0
KLE1 081852Z 32005KT 02/M05 A3031 RMK A01 T00211051  RH  059%=      5-min Rain = 0
KLE1 081853Z 32004KT 02/M05 A3031 RMK A01 T00201053  RH  058%=      5-min Rain = 0
KLE1 081854Z 32004KT 02/M05 A3031 RMK A01 T00211053  RH  058%=      5-min Rain = 0
KLE1 081855Z 33004KT 02/M04 A3031 RMK A01 T00211042  RH  063%=      5-min Rain = 0
KLE1 081856Z 32007KT 02/M04 A3031 RMK A01 T00211044  RH  062%=      5-min Rain = 0
KLE1 081857Z 32006KT 02/M05 A3031 RMK A01 T00211051  RH  059%=      5-min Rain = 0
KLE1 081858Z 32007KT 02/M05 A3031 RMK A01 T00211051  RH  059%=      5-min Rain = 0
KLE1 081859Z 32007KT 02/M05 A3031 RMK A01 T00211046  RH  061%=      5-min Rain = 0
KLE1 081900Z 33006KT 02/M05 A3031 RMK A01 T00211050  RH  059%=      5-min Rain = 0
KLE1 081901Z 33005KT 02/M05 A3031 RMK A01 T00221048  RH  060%=      5-min Rain = 0
KLE1 081902Z 33004KT 02/M05 A3031 RMK A01 T00221045  RH  061%=      5-min Rain = 0
KLE1 081903Z 31004KT 02/M05 A3031 RMK A01 T00221045  RH  061%=      5-min Rain = 0
KLE1 081904Z 30006KT 02/M04 A3031 RMK A01 T00231044  RH  062%=      5-min Rain = 0
KLE1 081905Z 30006KT 02/M05 A3031 RMK A01 T00231049  RH  059%=      5-min Rain = 0
KLE1 081906Z 31006KT 02/M05 A3031 RMK A01 T00231052  RH  058%=      5-min Rain = 0.01
KLE1 081907Z 31005KT 02/M05 A3031 RMK A01 T00231050  RH  058%=      5-min Rain = 0
KLE1 081908Z 31005KT 02/M05 A3031 RMK A01 T00231049  RH  059%=      5-min Rain = 0
KLE1 081909Z 31005KT 02/M05 A3031 RMK A01 T00231048  RH  059%=      5-min Rain = 0
KLE1 081910Z 30005KT 02/M05 A3031 RMK A01 T00231047  RH  060%=      5-min Rain = 0
KLE1 081911Z 30005KT 02/M05 A3031 RMK A01 T00231050  RH  059%=      5-min Rain = 0
KLE1 081912Z 30006KT 02/M05 A3031 RMK A01 T00231052  RH  058%=      5-min Rain = 0
KLE1 081913Z 30006KT 02/M05 A3031 RMK A01 T00231048  RH  059%=      5-min Rain = 0
KLE1 081914Z 30005KT 02/M05 A303 RMK A01 T00231048  RH  059%=      5-min Rain = 0
KLE1 081915Z 30006KT 02/M05 A303 RMK A01 T00241049  RH  059%=      5-min Rain = 0
KLE1 081916Z 31005KT 02/M06 A303 RMK A01 T00241056  RH  056%=      5-min Rain = 0
KLE1 081917Z 30004KT 02/M06 A303 RMK A01 T00231056  RH  056%=      5-min Rain = 0
KLE1 081918Z 30004KT 02/M05 A303 RMK A01 T00231054  RH  057%=      5-min Rain = 0
KLE1 081919Z 30004KT 02/M05 A303 RMK A01 T00241045  RH  060%=      5-min Rain = 0
KLE1 081920Z 30005KT 02/M05 A303 RMK A01 T00241045  RH  060%=      5-min Rain = 0
KLE1 081921Z 31005KT 03/M05 A303 RMK A01 T00251048  RH  059%=      5-min Rain = 0
KLE1 081922Z 33004KT 03/M05 A303 RMK A01 T00261047  RH  058%=      5-min Rain = 0
KLE1 081923Z 31004KT 03/M05 A303 RMK A01 T00261046  RH  059%=      5-min Rain = 0
KLE1 081924Z 31004KT 03/M04 A303 RMK A01 T00271044  RH  060%=      5-min Rain = 0
KLE1 081925Z 30005KT 03/M05 A303 RMK A01 T00271045  RH  059%=      5-min Rain = 0
KLE1 081926Z 31005KT 03/M05 A303 RMK A01 T00281045  RH  059%=      5-min Rain = 0
KLE1 081927Z 30005KT 03/M05 A303 RMK A01 T00281046  RH  058%=      5-min Rain = 0
KLE1 081928Z 30006KT 03/M05 A303 RMK A01 T00291046  RH  058%=      5-min Rain = 0
KLE1 081929Z 30006KT 03/M05 A303 RMK A01 T00291047  RH  057%=      5-min Rain = 0
KLE1 081930Z 30005KT 03/M05 A303 RMK A01 T00291046  RH  058%=      5-min Rain = 0
KLE1 081931Z 29006KT 03/M04 A303 RMK A01 T00301043  RH  059%=      5-min Rain = 0
KLE1 081932Z 29005KT 03/M04 A303 RMK A01 T00301041  RH  060%=      5-min Rain = 0
KLE1 081933Z 29006KT 03/M04 A303 RMK A01 T00311041  RH  059%=      5-min Rain = 0
KLE1 081934Z 29006KT 03/M05 A303 RMK A01 T00311049  RH  056%=      5-min Rain = 0
KLE1 081935Z 29004KT 03/M05 A303 RMK A01 T00301047  RH  057%=      5-min Rain = 0
KLE1 081936Z 30005KT 03/M05 A303 RMK A01 T00301045  RH  058%=      5-min Rain = 0
KLE1 081937Z 31005KT 03/M04 A303 RMK A01 T00311043  RH  058%=      5-min Rain = 0
KLE1 081938Z 32004KT 03/M05 A303 RMK A01 T00311052  RH  054%=      5-min Rain = 0
KLE1 081939Z 30004KT 03/M05 A303 RMK A01 T00311052  RH  054%=      5-min Rain = 0
KLE1 081940Z 31005KT 03/M04 A303 RMK A01 T00321041  RH  059%=      5-min Rain = 0
KLE1 081941Z 32004KT 03/M05 A303 RMK A01 T00331046  RH  056%=      5-min Rain = 0
KLE1 081942Z 32005KT 03/M06 A303 RMK A01 T00331055  RH  052%=      5-min Rain = 0
KLE1 081943Z 30004KT 03/M05 A3029 RMK A01 T00331050  RH  054%=      5-min Rain = 0
KLE1 081944Z 30005KT 03/M05 A3029 RMK A01 T00331046  RH  056%=      5-min Rain = 0
KLE1 081945Z 29004KT 03/M05 A3029 RMK A01 T00331048  RH  055%=      5-min Rain = 0
KLE1 081946Z 30005KT 03/M05 A3029 RMK A01 T00331048  RH  055%=      5-min Rain = 0
KLE1 081947Z 31005KT 03/M05 A3029 RMK A01 T00331046  RH  056%=      5-min Rain = 0
KLE1 081948Z 31005KT 03/M04 A3029 RMK A01 T00331044  RH  057%=      5-min Rain = 0
KLE1 081949Z 32007KT 03/M05 A3029 RMK A01 T00341047  RH  056%=      5-min Rain = 0
KLE1 081950Z 33006KT 03/M05 A3029 RMK A01 T00341049  RH  055%=      5-min Rain = 0
KLE1 081951Z 32007KT 04/M05 A3029 RMK A01 T00351048  RH  054%=      5-min Rain = 0
KLE1 081952Z 33006KT 04/M05 A3029 RMK A01 T00351049  RH  054%=      5-min Rain = 0
KLE1 081953Z 34008KT 04/M05 A3029 RMK A01 T00361051  RH  053%=      5-min Rain = 0
KLE1 081954Z 33008KT 04/M06 A3029 RMK A01 T00361061  RH  049%=      5-min Rain = 0
KLE1 081955Z 33006KT 04/M06 A3029 RMK A01 T00351061  RH  049%=      5-min Rain = 0
KLE1 081956Z 32006KT 04/M06 A3029 RMK A01 T00351058  RH  050%=      5-min Rain = 0
KLE1 081957Z 33007KT 04/M06 A3029 RMK A01 T00351061  RH  049%=      5-min Rain = 0
KLE1 081958Z 32007KT 04/M06 A3029 RMK A01 T00361061  RH  049%=      5-min Rain = 0
KLE1 081959Z 32008KT 04/M06 A3029 RMK A01 T00361058  RH  050%=      5-min Rain = 0
KLE1 082000Z 31007KT 04/M06 A3029 RMK A01 T00361061  RH  049%=      5-min Rain = 0
KLE1 082001Z 31006KT 04/M06 A3029 RMK A01 T00361064  RH  048%=      5-min Rain = 0
KLE1 082002Z 31005KT 04/M06 A3029 RMK A01 T00361061  RH  049%=      5-min Rain = 0
KLE1 082003Z 30005KT 04/M06 A3029 RMK A01 T00361064  RH  048%=      5-min Rain = 0
KLE1 082004Z 32007KT 04/M06 A3029 RMK A01 T00361058  RH  050%=      5-min Rain = 0
KLE1 082005Z 33008KT 04/M06 A3029 RMK A01 T00371058  RH  050%=      5-min Rain = 0
KLE1 082006Z 33006KT 04/M06 A3029 RMK A01 T00381055  RH  051%=      5-min Rain = 0
KLE1 082007Z 32007KT 04/M06 A3029 RMK A01 T00381062  RH  048%=      5-min Rain = 0
KLE1 082008Z 32007KT 04/M06 A3028 RMK A01 T00381064  RH  047%=      5-min Rain = 0
KLE1 082009Z 33007KT 04/M06 A3028 RMK A01 T00381059  RH  049%=      5-min Rain = 0
KLE1 082010Z 33005KT 04/M06 A3028 RMK A01 T00381061  RH  048%=      5-min Rain = 0
KLE1 082011Z 31005KT 04/M06 A3028 RMK A01 T00381059  RH  049%=      5-min Rain = 0
KLE1 082012Z 32006KT 04/M06 A3028 RMK A01 T00381059  RH  049%=      5-min Rain = 0
KLE1 082013Z 33008KT 04/M06 A3028 RMK A01 T00391058  RH  049%=      5-min Rain = 0
KLE1 082014Z 33007KT 04/M06 A3028 RMK A01 T00391058  RH  049%=      5-min Rain = 0
KLE1 082015Z 32007KT 04/M06 A3028 RMK A01 T00391058  RH  049%=      5-min Rain = 0
KLE1 082016Z 33007KT 04/M06 A3028 RMK A01 T00401061  RH  048%=      5-min Rain = 0
KLE1 082017Z 32007KT 04/M07 A3028 RMK A01 T00401067  RH  046%=      5-min Rain = 0
KLE1 082018Z 32007KT 04/M06 A3028 RMK A01 T00391061  RH  048%=      5-min Rain = 0
KLE1 082019Z 32008KT 04/M06 A3028 RMK A01 T00401061  RH  048%=      5-min Rain = 0
KLE1 082020Z 34005KT 04/M06 A3028 RMK A01 T00401062  RH  047%=      5-min Rain = 0
KLE1 082021Z 32006KT 04/M06 A3028 RMK A01 T00401063  RH  047%=      5-min Rain = 0
KLE1 082022Z 34007KT 04/M06 A3028 RMK A01 T00401062  RH  047%=      5-min Rain = 0
KLE1 082023Z 34008KT 04/M06 A3028 RMK A01 T00411061  RH  048%=      5-min Rain = 0
KLE1 082024Z 33006KT 04/M06 A3028 RMK A01 T00421055  RH  049%=      5-min Rain = 0
KLE1 082025Z 34006KT 04/M06 A3028 RMK A01 T00431055  RH  049%=      5-min Rain = 0
KLE1 082026Z 33004KT 04/M06 A3028 RMK A01 T00431057  RH  048%=      5-min Rain = 0
KLE1 082027Z 33005KT 04/M06 A3028 RMK A01 T00431057  RH  048%=      5-min Rain = 0
KLE1 082028Z 32007KT 04/M06 A3028 RMK A01 T00431061  RH  047%=      5-min Rain = 0
KLE1 082029Z 32007KT 04/M06 A3028 RMK A01 T00431062  RH  046%=      5-min Rain = 0
KLE1 082030Z 32006KT 04/M06 A3028 RMK A01 T00441058  RH  047%=      5-min Rain = 0
KLE1 082031Z 33007KT 05/M05 A3028 RMK A01 T00451053  RH  049%=      5-min Rain = 0
KLE1 082032Z 33007KT 05/M05 A3028 RMK A01 T00461053  RH  048%=      5-min Rain = 0
KLE1 082033Z 35006KT 05/M06 A3028 RMK A01 T00461056  RH  047%=      5-min Rain = 0
KLE1 082034Z 34005KT 05/M06 A3028 RMK A01 T00461062  RH  045%=      5-min Rain = 0
KLE1 082035Z 33005KT 05/M06 A3028 RMK A01 T00461064  RH  045%=      5-min Rain = 0
KLE1 082036Z 33004KT 05/M06 A3028 RMK A01 T00461058  RH  047%=      5-min Rain = 0
KLE1 082037Z 31006KT 05/M05 A3028 RMK A01 T00471050  RH  049%=      5-min Rain = 0
KLE1 082038Z 33007KT 05/M05 A3028 RMK A01 T00491051  RH  049%=      5-min Rain = 0
KLE1 082039Z 34007KT 05/M06 A3028 RMK A01 T00491055  RH  047%=      5-min Rain = 0
KLE1 082040Z 33007KT 05/M06 A3028 RMK A01 T00491058  RH  046%=      5-min Rain = 0
KLE1 082041Z 33005KT 05/M06 A3028 RMK A01 T00491059  RH  045%=      5-min Rain = 0
KLE1 082042Z 35005KT 05/M06 A3027 RMK A01 T00501056  RH  046%=      5-min Rain = 0
KLE1 082043Z 34005KT 05/M06 A3027 RMK A01 T00511058  RH  045%=      5-min Rain = 0
KLE1 082044Z 35006KT 05/M06 A3027 RMK A01 T00521056  RH  046%=      5-min Rain = 0
KLE1 082045Z 35006KT 05/M06 A3027 RMK A01 T00531056  RH  045%=      5-min Rain = 0
KLE1 082046Z 01005KT 05/M05 A3027 RMK A01 T00531051  RH  047%=      5-min Rain = 0
KLE1 082047Z 02004KT 05/M05 A3027 RMK A01 T00531053  RH  046%=      5-min Rain = 0
KLE1 082048Z 35003KT 05/M05 A3027 RMK A01 T00531048  RH  048%=      5-min Rain = 0
KLE1 082049Z 34006KT 05/M05 A3027 RMK A01 T00531054  RH  046%=      5-min Rain = 0
KLE1 082050Z 34005KT 05/M06 A3027 RMK A01 T00531063  RH  043%=      5-min Rain = 0
KLE1 082051Z 35005KT 05/M06 A3027 RMK A01 T00521062  RH  043%=      5-min Rain = 0
KLE1 082052Z 36005KT 05/M06 A3027 RMK A01 T00521061  RH  044%=      5-min Rain = 0
KLE1 082053Z 36006KT 05/M06 A3027 RMK A01 T00521060  RH  044%=      5-min Rain = 0
KLE1 082054Z 35006KT 05/M06 A3027 RMK A01 T00511063  RH  043%=      5-min Rain = 0
KLE1 082055Z 34005KT 05/M06 A3027 RMK A01 T00511057  RH  046%=      5-min Rain = 0
KLE1 082056Z 32004KT 05/M06 A3027 RMK A01 T00511056  RH  046%=      5-min Rain = 0
KLE1 082057Z 32004KT 05/M05 A3027 RMK A01 T00521049  RH  048%=      5-min Rain = 0
KLE1 082058Z 32005KT 05/M06 A3027 RMK A01 T00521056  RH  046%=      5-min Rain = 0
KLE1 082059Z 34003KT 05/M06 A3027 RMK A01 T00511057  RH  046%=      5-min Rain = 0
KLE1 082100Z 31004KT 05/M06 A3027 RMK A01 T00511055  RH  046%=      5-min Rain = 0
KLE1 082101Z 29006KT 05/M06 A3027 RMK A01 T00521056  RH  046%=      5-min Rain = 0
KLE1 082102Z 30005KT 05/M06 A3027 RMK A01 T00511057  RH  045%=      5-min Rain = 0
KLE1 082103Z 31005KT 05/M06 A3027 RMK A01 T00501058  RH  045%=      5-min Rain = 0
KLE1 082104Z 30003KT 05/M06 A3027 RMK A01 T00501059  RH  045%=      5-min Rain = 0
KLE1 082105Z 30003KT 05/M05 A3027 RMK A01 T00501052  RH  048%=      5-min Rain = 0
KLE1 082106Z 30003KT 05/M06 A3027 RMK A01 T00511055  RH  046%=      5-min Rain = 0
KLE1 082107Z 32003KT 05/M05 A3026 RMK A01 T00511054  RH  047%=      5-min Rain = 0
KLE1 082108Z 35004KT 05/M05 A3026 RMK A01 T00511053  RH  047%=      5-min Rain = 0
KLE1 082109Z 35004KT 05/M05 A3026 RMK A01 T00521053  RH  047%=      5-min Rain = 0
KLE1 082110Z 35006KT 05/M05 A3026 RMK A01 T00521053  RH  047%=      5-min Rain = 0
KLE1 082111Z 35007KT 05/M06 A3026 RMK A01 T00531055  RH  046%=      5-min Rain = 0
KLE1 082112Z 35005KT 05/M06 A3026 RMK A01 T00521062  RH  043%=      5-min Rain = 0
KLE1 082113Z 34006KT 05/M06 A3026 RMK A01 T00511060  RH  045%=      5-min Rain = 0
KLE1 082114Z 35007KT 05/M06 A3026 RMK A01 T00511057  RH  046%=      5-min Rain = 0
KLE1 082115Z 36006KT 05/M06 A3026 RMK A01 T00511060  RH  044%=      5-min Rain = 0
KLE1 082116Z 34005KT 05/M06 A3026 RMK A01 T00511061  RH  044%=      5-min Rain = 0
KLE1 082117Z 32004KT 05/M06 A3026 RMK A01 T00511057  RH  046%=      5-min Rain = 0
KLE1 082118Z 32005KT 05/M06 A3026 RMK A01 T00511056  RH  046%=      5-min Rain = 0
KLE1 082119Z 32006KT 05/M06 A3026 RMK A01 T00521062  RH  044%=      5-min Rain = 0
KLE1 082120Z 34007KT 05/M06 A3026 RMK A01 T00521061  RH  044%=      5-min Rain = 0
KLE1 082121Z 35007KT 05/M06 A3026 RMK A01 T00511058  RH  045%=      5-min Rain = 0
KLE1 082122Z 34007KT 05/M06 A3026 RMK A01 T00521055  RH  046%=      5-min Rain = 0
KLE1 082123Z 35008KT 05/M06 A3026 RMK A01 T00521056  RH  046%=      5-min Rain = 0
KLE1 082124Z 35008KT 05/M06 A3026 RMK A01 T00521055  RH  046%=      5-min Rain = 0
KLE1 082125Z 34007KT 05/M06 A3026 RMK A01 T00521059  RH  045%=      5-min Rain = 0
KLE1 082126Z 34006KT 05/M06 A3026 RMK A01 T00521055  RH  046%=      5-min Rain = 0
KLE1 082127Z 35007KT 05/M06 A3026 RMK A01 T00521055  RH  046%=      5-min Rain = 0
KLE1 082128Z 35006KT 05/M06 A3026 RMK A01 T00521060  RH  044%=      5-min Rain = 0
KLE1 082129Z 35006KT 05/M06 A3026 RMK A01 T00521060  RH  044%=      5-min Rain = 0
KLE1 082130Z 35005KT 05/M06 A3026 RMK A01 T00531057  RH  045%=      5-min Rain = 0
KLE1 082131Z 35005KT 05/M06 A3026 RMK A01 T00521062  RH  044%=      5-min Rain = 0
KLE1 082132Z 35006KT 05/M06 A3026 RMK A01 T00521062  RH  044%=      5-min Rain = 0
KLE1 082133Z 33005KT 05/M06 A3026 RMK A01 T00521063  RH  043%=      5-min Rain = 0
KLE1 082134Z 32007KT 05/M06 A3026 RMK A01 T00511061  RH  044%=      5-min Rain = 0
KLE1 082135Z 33006KT 05/M06 A3026 RMK A01 T00511064  RH  043%=      5-min Rain = 0
KLE1 082136Z 33004KT 05/M06 A3026 RMK A01 T00501063  RH  044%=      5-min Rain = 0
KLE1 082137Z 33004KT 05/M06 A3026 RMK A01 T00501063  RH  044%=      5-min Rain = 0
KLE1 082138Z 31005KT 05/M06 A3026 RMK A01 T00501061  RH  045%=      5-min Rain = 0
KLE1 082139Z 32005KT 05/M06 A3026 RMK A01 T00511059  RH  045%=      5-min Rain = 0
KLE1 082140Z 31005KT 05/M06 A3026 RMK A01 T00511057  RH  046%=      5-min Rain = 0
KLE1 082141Z 31004KT 05/M06 A3026 RMK A01 T00511060  RH  044%=      5-min Rain = 0
KLE1 082142Z 32005KT 05/M06 A3026 RMK A01 T00511059  RH  045%=      5-min Rain = 0
KLE1 082143Z 31004KT 05/M06 A3026 RMK A01 T00511060  RH  044%=      5-min Rain = 0
KLE1 082144Z 32005KT 05/M06 A3026 RMK A01 T00511062  RH  044%=      5-min Rain = 0
KLE1 082145Z 32005KT 05/M06 A3026 RMK A01 T00511061  RH  044%=      5-min Rain = 0
KLE1 082146Z 32004KT 05/M06 A3026 RMK A01 T00511055  RH  046%=      5-min Rain = 0
KLE1 082147Z 32004KT 05/M05 A3026 RMK A01 T00511053  RH  047%=      5-min Rain = 0
KLE1 082148Z 32004KT 05/M05 A3026 RMK A01 T00521053  RH  046%=      5-min Rain = 0
KLE1 082149Z 31005KT 05/M05 A3026 RMK A01 T00541050  RH  047%=      5-min Rain = 0
KLE1 082150Z 32006KT 06/M05 A3026 RMK A01 T00571051  RH  046%=      5-min Rain = 0
KLE1 082151Z 31003KT 06/M06 A3026 RMK A01 T00581060  RH  042%=      5-min Rain = 0
KLE1 082152Z 31002KT 06/M06 A3026 RMK A01 T00571064  RH  041%=      5-min Rain = 0
KLE1 082153Z 31003KT 06/M06 A3026 RMK A01 T00571062  RH  042%=      5-min Rain = 0
KLE1 082154Z 32004KT 06/M06 A3026 RMK A01 T00581059  RH  043%=      5-min Rain = 0
KLE1 082155Z 29003KT 06/M06 A3026 RMK A01 T00581057  RH  043%=      5-min Rain = 0
KLE1 082156Z 30003KT 06/M06 A3026 RMK A01 T00591059  RH  042%=      5-min Rain = 0
KLE1 082157Z 33003KT 06/M06 A3026 RMK A01 T00591062  RH  041%=      5-min Rain = 0
KLE1 082158Z 32004KT 06/M06 A3026 RMK A01 T00601058  RH  043%=      5-min Rain = 0
KLE1 082159Z 34006KT 06/M06 A3026 RMK A01 T00591056  RH  043%=      5-min Rain = 0
KLE1 082200Z 35005KT 06/M05 A3026 RMK A01 T00601053  RH  044%=      5-min Rain = 0
KLE1 082201Z 34004KT 06/M06 A3026 RMK A01 T00601056  RH  043%=      5-min Rain = 0
KLE1 082202Z 35005KT 06/M06 A3026 RMK A01 T00601056  RH  043%=      5-min Rain = 0
KLE1 082203Z 35004KT 06/M06 A3026 RMK A01 T00591057  RH  043%=      5-min Rain = 0
KLE1 082204Z 35004KT 06/M06 A3026 RMK A01 T00581056  RH  044%=      5-min Rain = 0
KLE1 082205Z 36003KT 06/M06 A3026 RMK A01 T00571056  RH  044%=      5-min Rain = 0
KLE1 082206Z 34003KT 06/M05 A3026 RMK A01 T00571053  RH  045%=      5-min Rain = 0
KLE1 082207Z 33004KT 06/M05 A3026 RMK A01 T00571052  RH  045%=      5-min Rain = 0
KLE1 082208Z 31005KT 06/M06 A3026 RMK A01 T00561055  RH  045%=      5-min Rain = 0
KLE1 082209Z 31003KT 06/M06 A3026 RMK A01 T00561055  RH  045%=      5-min Rain = 0
KLE1 082210Z 32005KT 06/M05 A3026 RMK A01 T00551054  RH  045%=      5-min Rain = 0
KLE1 082211Z 33004KT 06/M06 A3026 RMK A01 T00561055  RH  045%=      5-min Rain = 0
KLE1 082212Z 32003KT 06/M05 A3025 RMK A01 T00571054  RH  045%=      5-min Rain = 0
KLE1 082213Z 32003KT 06/M05 A3025 RMK A01 T00581053  RH  045%=      5-min Rain = 0
KLE1 082214Z 32004KT 06/M05 A3025 RMK A01 T00591052  RH  045%=      5-min Rain = 0
KLE1 082215Z 32004KT 06/M05 A3025 RMK A01 T00591050  RH  045%=      5-min Rain = 0
KLE1 082216Z 31004KT 06/M05 A3026 RMK A01 T00601050  RH  045%=      5-min Rain = 0
KLE1 082217Z 31004KT 06/M05 A3026 RMK A01 T00601052  RH  044%=      5-min Rain = 0
KLE1 082218Z 31005KT 06/M05 A3026 RMK A01 T00601050  RH  045%=      5-min Rain = 0
KLE1 082219Z 31006KT 06/M05 A3026 RMK A01 T00601050  RH  045%=      5-min Rain = 0
KLE1 082220Z 31006KT 06/M05 A3026 RMK A01 T00601049  RH  045%=      5-min Rain = 0
KLE1 082221Z 32005KT 06/M05 A3026 RMK A01 T00601048  RH  046%=      5-min Rain = 0
KLE1 082222Z 33004KT 06/M05 A3026 RMK A01 T00601049  RH  046%=      5-min Rain = 0
KLE1 082223Z 32005KT 06/M05 A3026 RMK A01 T00601050  RH  045%=      5-min Rain = 0
KLE1 082224Z 32005KT 06/M05 A3026 RMK A01 T00601048  RH  046%=      5-min Rain = 0
KLE1 082225Z 32005KT 06/M05 A3026 RMK A01 T00601049  RH  045%=      5-min Rain = 0
KLE1 082226Z 32004KT 06/M05 A3026 RMK A01 T00601053  RH  044%=      5-min Rain = 0
KLE1 082227Z 32004KT 06/M05 A3026 RMK A01 T00591054  RH  044%=      5-min Rain = 0
KLE1 082228Z 32003KT 06/M05 A3026 RMK A01 T00591054  RH  044%=      5-min Rain = 0
KLE1 082229Z 32004KT 06/M05 A3026 RMK A01 T00591053  RH  044%=      5-min Rain = 0
KLE1 082230Z 33003KT 06/M05 A3026 RMK A01 T00591051  RH  045%=      5-min Rain = 0
KLE1 082231Z 33003KT 06/M05 A3025 RMK A01 T00591049  RH  046%=      5-min Rain = 0
KLE1 082232Z 33004KT 06/M05 A3025 RMK A01 T00601050  RH  045%=      5-min Rain = 0
KLE1 082233Z 32004KT 06/M05 A3025 RMK A01 T00601052  RH  045%=      5-min Rain = 0
KLE1 082234Z 30004KT 06/M05 A3025 RMK A01 T00601051  RH  045%=      5-min Rain = 0
KLE1 082235Z 31004KT 06/M05 A3025 RMK A01 T00601052  RH  045%=      5-min Rain = 0
KLE1 082236Z 32004KT 06/M05 A3026 RMK A01 T00601051  RH  045%=      5-min Rain = 0
KLE1 082237Z 31003KT 06/M05 A3026 RMK A01 T00601052  RH  045%=      5-min Rain = 0
KLE1 082238Z 32003KT 06/M05 A3026 RMK A01 T00601052  RH  045%=      5-min Rain = 0
KLE1 082239Z 32003KT 06/M05 A3026 RMK A01 T00601054  RH  044%=      5-min Rain = 0
KLE1 082240Z 32002KT 06/M05 A3026 RMK A01 T00601054  RH  044%=      5-min Rain = 0
KLE1 082241Z 32002KT 06/M05 A3026 RMK A01 T00591054  RH  044%=      5-min Rain = 0
KLE1 082242Z 31002KT 06/M05 A3026 RMK A01 T00591054  RH  044%=      5-min Rain = 0
KLE1 082243Z 32003KT 06/M05 A3026 RMK A01 T00591052  RH  045%=      5-min Rain = 0
KLE1 082244Z 32006KT 06/M05 A3026 RMK A01 T00591051  RH  045%=      5-min Rain = 0
KLE1 082245Z 36005KT 06/M05 A3026 RMK A01 T00601045  RH  047%=      5-min Rain = 0
KLE1 082246Z 01007KT 06/M04 A3026 RMK A01 T00591042  RH  048%=      5-min Rain = 0
KLE1 082247Z 00006KT 06/M04 A3026 RMK A01 T00571043  RH  048%=      5-min Rain = 0
KLE1 082248Z 00007KT 06/M04 A3026 RMK A01 T00571041  RH  049%=      5-min Rain = 0
KLE1 082249Z 36007KT 06/M04 A3026 RMK A01 T00561039  RH  050%=      5-min Rain = 0
KLE1 082250Z 36007KT 06/M04 A3026 RMK A01 T00551041  RH  050%=      5-min Rain = 0
KLE1 082251Z 36006KT 06/M04 A3026 RMK A01 T00551041  RH  050%=      5-min Rain = 0
KLE1 082252Z 35006KT 05/M04 A3026 RMK A01 T00541040  RH  050%=      5-min Rain = 0
KLE1 082253Z 34007KT 05/M04 A3026 RMK A01 T00541039  RH  051%=      5-min Rain = 0
KLE1 082254Z 35006KT 05/M04 A3026 RMK A01 T00541040  RH  051%=      5-min Rain = 0
KLE1 082255Z 35006KT 05/M04 A3026 RMK A01 T00531039  RH  051%=      5-min Rain = 0
KLE1 082256Z 35007KT 05/M04 A3026 RMK A01 T00531040  RH  051%=      5-min Rain = 0
KLE1 082257Z 35007KT 05/M04 A3026 RMK A01 T00531040  RH  051%=      5-min Rain = 0
KLE1 082258Z 35006KT 05/M04 A3026 RMK A01 T00521039  RH  052%=      5-min Rain = 0
KLE1 082259Z 35006KT 05/M04 A3026 RMK A01 T00521039  RH  052%=      5-min Rain = 0
KLE1 082300Z 35006KT 05/M04 A3026 RMK A01 T00521039  RH  052%=      5-min Rain = 0
KLE1 082301Z 35006KT 05/M04 A3026 RMK A01 T00511039  RH  052%=      5-min Rain = 0
KLE1 082302Z 35006KT 05/M04 A3026 RMK A01 T00501040  RH  052%=      5-min Rain = 0
KLE1 082303Z 35006KT 05/M04 A3026 RMK A01 T00501041  RH  052%=      5-min Rain = 0
KLE1 082304Z 34006KT 05/M04 A3026 RMK A01 T00501040  RH  052%=      5-min Rain = 0
KLE1 082305Z 34006KT 05/M04 A3026 RMK A01 T00491040  RH  053%=      5-min Rain = 0
KLE1 082306Z 34006KT 05/M04 A3026 RMK A01 T00491039  RH  053%=      5-min Rain = 0
KLE1 082307Z 34006KT 05/M04 A3026 RMK A01 T00481039  RH  053%=      5-min Rain = 0
KLE1 082308Z 34006KT 05/M04 A3026 RMK A01 T00481040  RH  053%=      5-min Rain = 0
KLE1 082309Z 33005KT 05/M04 A3026 RMK A01 T00471039  RH  053%=      5-min Rain = 0
KLE1 082310Z 33005KT 05/M04 A3026 RMK A01 T00471038  RH  054%=      5-min Rain = 0
KLE1 082311Z 33005KT 05/M04 A3026 RMK A01 T00461037  RH  055%=      5-min Rain = 0
KLE1 082312Z 33005KT 05/M04 A3026 RMK A01 T00461037  RH  055%=      5-min Rain = 0
KLE1 082313Z 33005KT 05/M04 A3026 RMK A01 T00451037  RH  055%=      5-min Rain = 0
KLE1 082314Z 33005KT 04/M04 A3026 RMK A01 T00441037  RH  056%=      5-min Rain = 0
KLE1 082315Z 33005KT 04/M04 A3026 RMK A01 T00431037  RH  056%=      5-min Rain = 0
KLE1 082316Z 33005KT 04/M04 A3026 RMK A01 T00431036  RH  056%=      5-min Rain = 0
KLE1 082317Z 32005KT 04/M04 A3026 RMK A01 T00421036  RH  057%=      5-min Rain = 0
KLE1 082318Z 32005KT 04/M04 A3026 RMK A01 T00411036  RH  057%=      5-min Rain = 0
KLE1 082319Z 32005KT 04/M04 A3026 RMK A01 T00411036  RH  057%=      5-min Rain = 0
KLE1 082320Z 32006KT 04/M04 A3026 RMK A01 T00401036  RH  058%=      5-min Rain = 0
KLE1 082321Z 32005KT 04/M04 A3026 RMK A01 T00401036  RH  058%=      5-min Rain = 0
KLE1 082322Z 31005KT 04/M04 A3026 RMK A01 T00391037  RH  058%=      5-min Rain = 0
KLE1 082323Z 31005KT 04/M04 A3026 RMK A01 T00381037  RH  058%=      5-min Rain = 0
KLE1 082324Z 31005KT 04/M04 A3026 RMK A01 T00371038  RH  058%=      5-min Rain = 0
KLE1 082325Z 31005KT 04/M04 A3026 RMK A01 T00371038  RH  058%=      5-min Rain = 0
KLE1 082326Z 31005KT 04/M04 A3026 RMK A01 T00371038  RH  058%=      5-min Rain = 0
KLE1 082327Z 31005KT 04/M04 A3026 RMK A01 T00371038  RH  058%=      5-min Rain = 0
KLE1 082328Z 31004KT 04/M04 A3026 RMK A01 T00371039  RH  058%=      5-min Rain = 0
KLE1 082329Z 31004KT 04/M04 A3026 RMK A01 T00361039  RH  058%=      5-min Rain = 0
KLE1 082330Z 31004KT 04/M04 A3026 RMK A01 T00361039  RH  058%=      5-min Rain = 0
KLE1 082331Z 31004KT 04/M04 A3026 RMK A01 T00361040  RH  058%=      5-min Rain = 0
KLE1 082332Z 31004KT 04/M04 A3026 RMK A01 T00361040  RH  057%=      5-min Rain = 0
KLE1 082333Z 32004KT 04/M04 A3026 RMK A01 T00361041  RH  057%=      5-min Rain = 0
KLE1 082334Z 32004KT 04/M04 A3026 RMK A01 T00361041  RH  057%=      5-min Rain = 0
KLE1 082335Z 31004KT 04/M04 A3026 RMK A01 T00361041  RH  057%=      5-min Rain = 0
KLE1 082336Z 32004KT 04/M04 A3026 RMK A01 T00351041  RH  057%=      5-min Rain = 0
KLE1 082337Z 32005KT 04/M04 A3026 RMK A01 T00351041  RH  058%=      5-min Rain = 0
KLE1 082338Z 32005KT 03/M04 A3026 RMK A01 T00341041  RH  058%=      5-min Rain = 0
KLE1 082339Z 32005KT 03/M04 A3026 RMK A01 T00341040  RH  058%=      5-min Rain = 0
KLE1 082340Z 32005KT 03/M04 A3026 RMK A01 T00331040  RH  058%=      5-min Rain = 0
KLE1 082341Z 31005KT 03/M04 A3026 RMK A01 T00331039  RH  059%=      5-min Rain = 0
KLE1 082342Z 31005KT 03/M04 A3026 RMK A01 T00321038  RH  060%=      5-min Rain = 0
KLE1 082343Z 32004KT 03/M04 A3026 RMK A01 T00311037  RH  061%=      5-min Rain = 0
KLE1 082344Z 33005KT 03/M04 A3026 RMK A01 T00301035  RH  062%=      5-min Rain = 0
KLE1 082345Z 33005KT 03/M04 A3026 RMK A01 T00301036  RH  062%=      5-min Rain = 0
KLE1 082346Z 32005KT 03/M04 A3027 RMK A01 T00291036  RH  062%=      5-min Rain = 0
KLE1 082347Z 32005KT 03/M04 A3027 RMK A01 T00281035  RH  063%=      5-min Rain = 0
KLE1 082348Z 32006KT 03/M04 A3027 RMK A01 T00271036  RH  063%=      5-min Rain = 0
KLE1 082349Z 32005KT 03/M04 A3027 RMK A01 T00271036  RH  063%=      5-min Rain = 0
KLE1 082350Z 32005KT 03/M04 A3027 RMK A01 T00271036  RH  063%=      5-min Rain = 0
KLE1 082351Z 32005KT 03/M04 A3026 RMK A01 T00271036  RH  063%=      5-min Rain = 0
KLE1 082352Z 31005KT 03/M04 A3026 RMK A01 T00271037  RH  063%=      5-min Rain = 0
KLE1 082353Z 32005KT 03/M04 A3026 RMK A01 T00271038  RH  062%=      5-min Rain = 0
KLE1 082354Z 32005KT 03/M04 A3026 RMK A01 T00281038  RH  062%=      5-min Rain = 0
KLE1 082355Z 33005KT 03/M04 A3026 RMK A01 T00281039  RH  062%=      5-min Rain = 0
KLE1 082356Z 33005KT 03/M04 A3026 RMK A01 T00281039  RH  061%=      5-min Rain = 0
KLE1 082357Z 33005KT 03/M04 A3026 RMK A01 T00291039  RH  061%=      5-min Rain = 0
KLE1 082358Z 33005KT 03/M04 A3026 RMK A01 T00291039  RH  061%=      5-min Rain = 0
KLE1 082359Z 33005KT 03/M04 A3026 RMK A01 T00291039  RH  061%=      5-min Rain = 0
KLE1 090000Z 32004KT 03/M04 A3026 RMK A01 T00291039  RH  061%=      5-min Rain = 0
KLE1 090001Z 32004KT 03/M04 A3026 RMK A01 T00281038  RH  062%=      5-min Rain = 0
KLE1 090002Z 33005KT 03/M04 A3026 RMK A01 T00281038  RH  062%=      5-min Rain = 0
KLE1 090003Z 33005KT 03/M04 A3026 RMK A01 T00281038  RH  062%=      5-min Rain = 0
KLE1 090004Z 33005KT 03/M04 A3026 RMK A01 T00281038  RH  062%=      5-min Rain = 0
KLE1 090005Z 33006KT 03/M04 A3026 RMK A01 T00281038  RH  062%=      5-min Rain = 0
KLE1 090006Z 33005KT 03/M04 A3026 RMK A01 T00271038  RH  062%=      5-min Rain = 0
KLE1 090007Z 33005KT 03/M04 A3026 RMK A01 T00271037  RH  063%=      5-min Rain = 0
KLE1 090008Z 33005KT 03/M04 A3026 RMK A01 T00261037  RH  063%=      5-min Rain = 0
KLE1 090009Z 32005KT 02/M04 A3026 RMK A01 T00241036  RH  064%=      5-min Rain = 0
KLE1 090010Z 32005KT 02/M04 A3026 RMK A01 T00241035  RH  065%=      5-min Rain = 0
KLE1 090011Z 32005KT 02/M04 A3026 RMK A01 T00231035  RH  065%=      5-min Rain = 0
KLE1 090012Z 32004KT 02/M04 A3027 RMK A01 T00231035  RH  065%=      5-min Rain = 0
KLE1 090013Z 32004KT 02/M04 A3027 RMK A01 T00231035  RH  065%=      5-min Rain = 0
KLE1 090014Z 32004KT 02/M04 A3027 RMK A01 T00231035  RH  065%=      5-min Rain = 0
KLE1 090015Z 32005KT 02/M04 A3027 RMK A01 T00231035  RH  065%=      5-min Rain = 0
KLE1 090016Z 32005KT 02/M04 A3027 RMK A01 T00231035  RH  065%=      5-min Rain = 0
KLE1 090017Z 32005KT 02/M04 A3027 RMK A01 T00231036  RH  065%=      5-min Rain = 0
KLE1 090018Z 32006KT 02/M04 A3027 RMK A01 T00221036  RH  066%=      5-min Rain = 0
KLE1 090019Z 32006KT 02/M04 A3027 RMK A01 T00211036  RH  066%=      5-min Rain = 0
KLE1 090020Z 32006KT 02/M04 A3027 RMK A01 T00201036  RH  066%=      5-min Rain = 0
KLE1 090021Z 32006KT 02/M04 A3027 RMK A01 T00201036  RH  067%=      5-min Rain = 0
KLE1 090022Z 32006KT 02/M04 A3027 RMK A01 T00191036  RH  067%=      5-min Rain = 0
KLE1 090023Z 32006KT 02/M04 A3027 RMK A01 T00191036  RH  067%=      5-min Rain = 0
KLE1 090024Z 32006KT 02/M04 A3027 RMK A01 T00181035  RH  068%=      5-min Rain = 0
KLE1 090025Z 32006KT 02/M04 A3027 RMK A01 T00171035  RH  068%=      5-min Rain = 0
KLE1 090026Z 32006KT 02/M04 A3027 RMK A01 T00171035  RH  069%=      5-min Rain = 0
KLE1 090027Z 32006KT 02/M04 A3027 RMK A01 T00161035  RH  069%=      5-min Rain = 0
KLE1 090028Z 32006KT 02/M03 A3027 RMK A01 T00161034  RH  069%=      5-min Rain = 0
KLE1 090029Z 33007KT 02/M04 A3027 RMK A01 T00161035  RH  069%=      5-min Rain = 0
KLE1 090030Z 32007KT 02/M04 A3027 RMK A01 T00151035  RH  069%=      5-min Rain = 0
KLE1 090031Z 32007KT 02/M04 A3027 RMK A01 T00151035  RH  070%=      5-min Rain = 0
KLE1 090032Z 33007KT 01/M04 A3027 RMK A01 T00141035  RH  070%=      5-min Rain = 0
KLE1 090033Z 33007KT 01/M04 A3027 RMK A01 T00141035  RH  070%=      5-min Rain = 0
KLE1 090034Z 33007KT 01/M04 A3027 RMK A01 T00131035  RH  070%=      5-min Rain = 0
KLE1 090035Z 33007KT 01/M04 A3027 RMK A01 T00131035  RH  070%=      5-min Rain = 0
KLE1 090036Z 33007KT 01/M04 A3027 RMK A01 T00121036  RH  070%=      5-min Rain = 0
KLE1 090037Z 33007KT 01/M04 A3027 RMK A01 T00121036  RH  071%=      5-min Rain = 0
KLE1 090038Z 33008KT 01/M04 A3027 RMK A01 T00111036  RH  071%=      5-min Rain = 0
KLE1 090039Z 33008KT 01/M04 A3027 RMK A01 T00111036  RH  071%=      5-min Rain = 0
KLE1 090040Z 33008KT 01/M04 A3027 RMK A01 T00111036  RH  071%=      5-min Rain = 0
KLE1 090041Z 33008KT 01/M04 A3027 RMK A01 T00111036  RH  071%=      5-min Rain = 0
KLE1 090042Z 33008KT 01/M04 A3027 RMK A01 T00111036  RH  071%=      5-min Rain = 0
KLE1 090043Z 33008KT 01/M04 A3027 RMK A01 T00101036  RH  071%=      5-min Rain = 0
KLE1 090044Z 33007KT 01/M04 A3027 RMK A01 T00101036  RH  071%=      5-min Rain = 0
KLE1 090045Z 33007KT 01/M04 A3027 RMK A01 T00101036  RH  071%=      5-min Rain = 0
KLE1 090046Z 33007KT 01/M04 A3028 RMK A01 T00101036  RH  071%=      5-min Rain = 0
KLE1 090047Z 33007KT 01/M04 A3028 RMK A01 T00101036  RH  071%=      5-min Rain = 0
KLE1 090048Z 33007KT 01/M04 A3028 RMK A01 T00111036  RH  071%=      5-min Rain = 0
KLE1 090049Z 33007KT 01/M04 A3028 RMK A01 T00111035  RH  071%=      5-min Rain = 0
KLE1 090050Z 33007KT 01/M04 A3028 RMK A01 T00111035  RH  072%=      5-min Rain = 0
KLE1 090051Z 33007KT 01/M03 A3028 RMK A01 T00111034  RH  072%=      5-min Rain = 0
KLE1 090052Z 33007KT 01/M03 A3028 RMK A01 T00111034  RH  072%=      5-min Rain = 0
KLE1 090053Z 33007KT 01/M03 A3028 RMK A01 T00111034  RH  072%=      5-min Rain = 0
KLE1 090054Z 33007KT 01/M03 A3028 RMK A01 T00101034  RH  072%=      5-min Rain = 0
KLE1 090055Z 33007KT 01/M03 A3028 RMK A01 T00101034  RH  072%=      5-min Rain = 0
KLE1 090056Z 33007KT 01/M03 A3028 RMK A01 T00101034  RH  072%=      5-min Rain = 0
KLE1 090057Z 33007KT 01/M03 A3028 RMK A01 T00111034  RH  072%=      5-min Rain = 0
KLE1 090058Z 33007KT 01/M03 A3028 RMK A01 T00101033  RH  073%=      5-min Rain = 0
KLE1 090059Z 33007KT 01/M03 A3028 RMK A01 T00091033  RH  073%=      5-min Rain = 0
KLE1 090100Z 33007KT 01/M03 A3028 RMK A01 T00091033  RH  074%=      5-min Rain = 0
KLE1 090101Z 33007KT 01/M03 A3028 RMK A01 T00081034  RH  073%=      5-min Rain = 0
KLE1 090102Z 33007KT 01/M04 A3028 RMK A01 T00081035  RH  073%=      5-min Rain = 0
KLE1 090103Z 33007KT 01/M04 A3028 RMK A01 T00071035  RH  073%=      5-min Rain = 0
KLE1 090104Z 34007KT 01/M04 A3028 RMK A01 T00071035  RH  073%=      5-min Rain = 0
KLE1 090105Z 34007KT 01/M04 A3028 RMK A01 T00061036  RH  073%=      5-min Rain = 0
KLE1 090106Z 33007KT 01/M04 A3028 RMK A01 T00061036  RH  074%=      5-min Rain = 0
KLE1 090107Z 33007KT 01/M04 A3028 RMK A01 T00051036  RH  074%=      5-min Rain = 0
KLE1 090108Z 34007KT 01/M04 A3028 RMK A01 T00051036  RH  074%=      5-min Rain = 0
KLE1 090109Z 34006KT 01/M04 A3028 RMK A01 T00061037  RH  073%=      5-min Rain = 0
KLE1 090110Z 35007KT 01/M04 A3028 RMK A01 T00071037  RH  073%=      5-min Rain = 0
KLE1 090111Z 35006KT 01/M04 A3028 RMK A01 T00071038  RH  072%=      5-min Rain = 0
KLE1 090112Z 35006KT 01/M04 A3028 RMK A01 T00071038  RH  072%=      5-min Rain = 0
KLE1 090113Z 35006KT 01/M04 A3028 RMK A01 T00081039  RH  071%=      5-min Rain = 0
KLE1 090114Z 36007KT 01/M04 A3028 RMK A01 T00091039  RH  070%=      5-min Rain = 0
KLE1 090115Z 00007KT 01/M04 A3029 RMK A01 T00091039  RH  070%=      5-min Rain = 0
KLE1 090116Z 36007KT 01/M04 A3029 RMK A01 T00081039  RH  071%=      5-min Rain = 0
KLE1 090117Z 00007KT 01/M04 A3029 RMK A01 T00081038  RH  071%=      5-min Rain = 0
KLE1 090118Z 00008KT 01/M04 A3029 RMK A01 T00071038  RH  072%=      5-min Rain = 0
KLE1 090119Z 01007KT 01/M04 A3028 RMK A01 T00061038  RH  072%=      5-min Rain = 0
KLE1 090120Z 01007KT 01/M04 A3028 RMK A01 T00061038  RH  073%=      5-min Rain = 0
KLE1 090121Z 01008KT 01/M04 A3028 RMK A01 T00061038  RH  073%=      5-min Rain = 0
KLE1 090122Z 02008KT 01/M04 A3028 RMK A01 T00051039  RH  072%=      5-min Rain = 0
KLE1 090123Z 01007KT 01/M04 A3029 RMK A01 T00051040  RH  071%=      5-min Rain = 0
KLE1 090124Z 01008KT 01/M04 A3029 RMK A01 T00051041  RH  071%=      5-min Rain = 0
KLE1 090125Z 01008KT 01/M04 A3029 RMK A01 T00061042  RH  070%=      5-min Rain = 0
KLE1 090126Z 01007KT 01/M04 A3029 RMK A01 T00061042  RH  070%=      5-min Rain = 0
KLE1 090127Z 00008KT 01/M04 A3029 RMK A01 T00061042  RH  070%=      5-min Rain = 0
KLE1 090128Z 01008KT 01/M04 A3029 RMK A01 T00061042  RH  071%=      5-min Rain = 0
KLE1 090129Z 00008KT 01/M04 A3029 RMK A01 T00061042  RH  071%=      5-min Rain = 0
KLE1 090130Z 00008KT 01/M04 A3029 RMK A01 T00061041  RH  071%=      5-min Rain = 0
KLE1 090131Z 00008KT 01/M04 A3029 RMK A01 T00051041  RH  071%=      5-min Rain = 0
KLE1 090132Z 01008KT 00/M04 A3029 RMK A01 T00041042  RH  071%=      5-min Rain = 0
KLE1 090133Z 00008KT 00/M04 A3029 RMK A01 T00031041  RH  072%=      5-min Rain = 0
KLE1 090134Z 01008KT 00/M04 A3029 RMK A01 T00031041  RH  072%=      5-min Rain = 0
KLE1 090135Z 01007KT 00/M04 A3029 RMK A01 T00021042  RH  073%=      5-min Rain = 0
KLE1 090136Z 01008KT 00/M04 A3029 RMK A01 T00011042  RH  073%=      5-min Rain = 0
KLE1 090137Z 01008KT 00/M04 A3029 RMK A01 T00011041  RH  073%=      5-min Rain = 0
KLE1 090138Z 01008KT 00/M04 A3029 RMK A01 T00011042  RH  073%=      5-min Rain = 0
KLE1 090139Z 01009KT 00/M04 A3029 RMK A01 T00011042  RH  073%=      5-min Rain = 0
KLE1 090140Z 01009KT 00/M04 A3029 RMK A01 T00011042  RH  073%=      5-min Rain = 0
KLE1 090141Z 01009KT 00/M04 A3029 RMK A01 T00021042  RH  072%=      5-min Rain = 0
KLE1 090142Z 01009KT 00/M04 A3029 RMK A01 T00021042  RH  072%=      5-min Rain = 0
KLE1 090143Z 01009KT 00/M04 A303 RMK A01 T00031042  RH  071%=      5-min Rain = 0
KLE1 090144Z 01009KT 00/M04 A303 RMK A01 T00041042  RH  071%=      5-min Rain = 0
KLE1 090145Z 01009KT 01/M04 A303 RMK A01 T00051042  RH  071%=      5-min Rain = 0
KLE1 090146Z 01009KT 01/M04 A303 RMK A01 T00061042  RH  070%=      5-min Rain = 0
KLE1 090147Z 01009KT 01/M04 A303 RMK A01 T00061043  RH  070%=      5-min Rain = 0
KLE1 090148Z 01009KT 01/M04 A303 RMK A01 T00061043  RH  070%=      5-min Rain = 0
KLE1 090149Z 01009KT 01/M04 A303 RMK A01 T00061043  RH  070%=      5-min Rain = 0
KLE1 090150Z 02009KT 01/M04 A303 RMK A01 T00061043  RH  069%=      5-min Rain = 0
KLE1 090151Z 02008KT 01/M04 A303 RMK A01 T00061044  RH  069%=      5-min Rain = 0
KLE1 090152Z 02008KT 01/M04 A303 RMK A01 T00071043  RH  069%=      5-min Rain = 0
KLE1 090153Z 02007KT 01/M04 A303 RMK A01 T00081043  RH  069%=      5-min Rain = 0
KLE1 090154Z 02008KT 01/M04 A303 RMK A01 T00081044  RH  068%=      5-min Rain = 0
KLE1 090155Z 02008KT 01/M04 A303 RMK A01 T00081044  RH  068%=      5-min Rain = 0
KLE1 090156Z 02008KT 01/M04 A303 RMK A01 T00081044  RH  068%=      5-min Rain = 0
KLE1 090157Z 02008KT 01/M04 A303 RMK A01 T00081044  RH  068%=      5-min Rain = 0
KLE1 090158Z 02008KT 01/M05 A303 RMK A01 T00081045  RH  067%=      5-min Rain = 0
KLE1 090159Z 02007KT 01/M05 A303 RMK A01 T00091045  RH  067%=      5-min Rain = 0
KLE1 090200Z 02008KT 01/M05 A303 RMK A01 T00091045  RH  067%=      5-min Rain = 0
KLE1 090201Z 02007KT 01/M04 A303 RMK A01 T00091044  RH  067%=      5-min Rain = 0
KLE1 090202Z 02007KT 01/M04 A303 RMK A01 T00091044  RH  068%=      5-min Rain = 0
KLE1 090203Z 02007KT 01/M04 A303 RMK A01 T00081044  RH  068%=      5-min Rain = 0
KLE1 090204Z 02007KT 01/M04 A303 RMK A01 T00081044  RH  068%=      5-min Rain = 0
KLE1 090205Z 02007KT 01/M04 A303 RMK A01 T00071044  RH  069%=      5-min Rain = 0
KLE1 090206Z 02007KT 01/M05 A303 RMK A01 T00061045  RH  069%=      5-min Rain = 0
KLE1 090207Z 02007KT 01/M05 A303 RMK A01 T00061046  RH  068%=      5-min Rain = 0
KLE1 090208Z 02007KT 01/M05 A303 RMK A01 T00071047  RH  067%=      5-min Rain = 0
KLE1 090209Z 02008KT 01/M05 A303 RMK A01 T00071047  RH  067%=      5-min Rain = 0
KLE1 090210Z 02008KT 01/M05 A303 RMK A01 T00071047  RH  067%=      5-min Rain = 0
KLE1 090211Z 02008KT 01/M05 A303 RMK A01 T00061050  RH  066%=      5-min Rain = 0
KLE1 090212Z 02007KT 01/M05 A303 RMK A01 T00061051  RH  065%=      5-min Rain = 0
KLE1 090213Z 02007KT 01/M05 A303 RMK A01 T00071051  RH  065%=      5-min Rain = 0
KLE1 090214Z 02008KT 01/M05 A303 RMK A01 T00071049  RH  066%=      5-min Rain = 0
KLE1 090215Z 02008KT 01/M05 A303 RMK A01 T00071047  RH  067%=      5-min Rain = 0
KLE1 090216Z 02008KT 01/M05 A303 RMK A01 T00071049  RH  066%=      5-min Rain = 0
KLE1 090217Z 02007KT 01/M05 A303 RMK A01 T00071051  RH  065%=      5-min Rain = 0
KLE1 090218Z 02008KT 01/M05 A303 RMK A01 T00071052  RH  065%=      5-min Rain = 0
KLE1 090219Z 02007KT 01/M05 A303 RMK A01 T00071053  RH  064%=      5-min Rain = 0
KLE1 090220Z 02007KT 01/M05 A303 RMK A01 T00081052  RH  064%=      5-min Rain = 0
KLE1 090221Z 01007KT 01/M05 A303 RMK A01 T00071050  RH  066%=      5-min Rain = 0
KLE1 090222Z 01007KT 01/M05 A303 RMK A01 T00061048  RH  068%=      5-min Rain = 0
KLE1 090223Z 02007KT 00/M05 A303 RMK A01 T00041047  RH  069%=      5-min Rain = 0
KLE1 090224Z 02007KT 00/M05 A303 RMK A01 T00031048  RH  069%=      5-min Rain = 0
KLE1 090225Z 01006KT 00/M05 A303 RMK A01 T00021047  RH  069%=      5-min Rain = 0
KLE1 090226Z 02006KT 00/M05 A303 RMK A01 T00021047  RH  070%=      5-min Rain = 0
KLE1 090227Z 01006KT 00/M05 A303 RMK A01 T00021047  RH  070%=      5-min Rain = 0
KLE1 090228Z 01006KT 00/M05 A303 RMK A01 T00021047  RH  069%=      5-min Rain = 0
KLE1 090229Z 01006KT 00/M05 A303 RMK A01 T00031047  RH  069%=      5-min Rain = 0
KLE1 090230Z 01007KT 00/M05 A303 RMK A01 T00031047  RH  069%=      5-min Rain = 0
KLE1 090231Z 01007KT 00/M05 A303 RMK A01 T00031047  RH  069%=      5-min Rain = 0
KLE1 090232Z 01006KT 00/M05 A303 RMK A01 T00031047  RH  069%=      5-min Rain = 0
KLE1 090233Z 00007KT 00/M05 A303 RMK A01 T00031047  RH  069%=      5-min Rain = 0
KLE1 090234Z 00007KT 00/M05 A303 RMK A01 T00021047  RH  070%=      5-min Rain = 0
KLE1 090235Z 00007KT 00/M05 A303 RMK A01 T00021047  RH  070%=      5-min Rain = 0
KLE1 090236Z 01007KT 00/M05 A303 RMK A01 T00021047  RH  070%=      5-min Rain = 0
KLE1 090237Z 01007KT 00/M05 A303 RMK A01 T00011047  RH  070%=      5-min Rain = 0
KLE1 090238Z 00007KT 00/M05 A303 RMK A01 T00011048  RH  070%=      5-min Rain = 0
KLE1 090239Z 00007KT 00/M05 A303 RMK A01 T00011048  RH  070%=      5-min Rain = 0
KLE1 090240Z 00007KT 00/M05 A303 RMK A01 T00011049  RH  069%=      5-min Rain = 0
KLE1 090241Z 00007KT 00/M05 A303 RMK A01 T00011050  RH  069%=      5-min Rain = 0
KLE1 090242Z 00007KT 00/M05 A303 RMK A01 T00011051  RH  068%=      5-min Rain = 0
KLE1 090243Z 00007KT 00/M05 A303 RMK A01 T00011051  RH  068%=      5-min Rain = 0
KLE1 090244Z 00007KT 00/M05 A303 RMK A01 T00011052  RH  068%=      5-min Rain = 0
KLE1 090245Z 00007KT 00/M05 A303 RMK A01 T00011052  RH  068%=      5-min Rain = 0
KLE1 090246Z 00007KT 00/M05 A303 RMK A01 T00011053  RH  067%=      5-min Rain = 0
KLE1 090247Z 00007KT 00/M05 A303 RMK A01 T00011053  RH  067%=      5-min Rain = 0
KLE1 090248Z 00007KT 00/M05 A303 RMK A01 T00011053  RH  067%=      5-min Rain = 0
KLE1 090249Z 00007KT 00/M05 A303 RMK A01 T00011053  RH  067%=      5-min Rain = 0
KLE1 090250Z 00007KT 00/M05 A303 RMK A01 T00011052  RH  068%=      5-min Rain = 0
KLE1 090251Z 00007KT 00/05 A303 RMK A01 T00-00-52  RH  068%=      5-min Rain = 0
KLE1 090252Z 00007KT M00/M05 A303 RMK A01 T10011053  RH  068%=      5-min Rain = 0
KLE1 090253Z 00007KT M00/M05 A303 RMK A01 T10011053  RH  068%=      5-min Rain = 0
KLE1 090254Z 00007KT M00/M05 A303 RMK A01 T10021053  RH  068%=      5-min Rain = 0
KLE1 090255Z 00007KT M00/M05 A303 RMK A01 T10021053  RH  069%=      5-min Rain = 0
KLE1 090256Z 00007KT M00/M05 A303 RMK A01 T10031053  RH  069%=      5-min Rain = 0
KLE1 090257Z 00007KT M00/M05 A303 RMK A01 T10031053  RH  069%=      5-min Rain = 0
KLE1 090258Z 00007KT M00/M05 A303 RMK A01 T10031053  RH  069%=      5-min Rain = 0
KLE1 090259Z 00007KT M00/M05 A303 RMK A01 T10041053  RH  069%=      5-min Rain = 0
KLE1 090300Z 00007KT M00/M05 A303 RMK A01 T10041052  RH  070%=      5-min Rain = 0
KLE1 090301Z 00007KT M01/M05 A303 RMK A01 T10051052  RH  070%=      5-min Rain = 0
KLE1 090302Z 00007KT M01/M05 A303 RMK A01 T10051052  RH  070%=      5-min Rain = 0
KLE1 090303Z 00007KT M01/M05 A303 RMK A01 T10061052  RH  071%=      5-min Rain = 0
KLE1 090304Z 00007KT M01/M05 A303 RMK A01 T10061052  RH  071%=      5-min Rain = 0
KLE1 090305Z 00007KT M01/M05 A303 RMK A01 T10071051  RH  072%=      5-min Rain = 0
KLE1 090306Z 00007KT M01/M05 A303 RMK A01 T10081051  RH  073%=      5-min Rain = 0
KLE1 090307Z 36007KT M01/M05 A303 RMK A01 T10091050  RH  073%=      5-min Rain = 0
KLE1 090308Z 00007KT M01/M05 A303 RMK A01 T10101051  RH  074%=      5-min Rain = 0
KLE1 090309Z 36007KT M01/M05 A303 RMK A01 T10101051  RH  074%=      5-min Rain = 0
KLE1 090310Z 00008KT M01/M05 A303 RMK A01 T10111051  RH  074%=      5-min Rain = 0
KLE1 090311Z 00008KT M01/M05 A303 RMK A01 T10111051  RH  074%=      5-min Rain = 0
KLE1 090312Z 00008KT M01/M05 A303 RMK A01 T10111052  RH  074%=      5-min Rain = 0
KLE1 090313Z 00008KT M01/M05 A303 RMK A01 T10121052  RH  074%=      5-min Rain = 0
KLE1 090314Z 00008KT M01/M05 A303 RMK A01 T10121052  RH  074%=      5-min Rain = 0
KLE1 090315Z 00008KT M01/M05 A303 RMK A01 T10121052  RH  074%=      5-min Rain = 0
KLE1 090316Z 00007KT M01/M05 A303 RMK A01 T10121052  RH  074%=      5-min Rain = 0
KLE1 090317Z 00007KT M01/M05 A303 RMK A01 T10121052  RH  074%=      5-min Rain = 0
KLE1 090318Z 00008KT M01/M05 A303 RMK A01 T10131053  RH  074%=      5-min Rain = 0
KLE1 090319Z 00008KT M01/M05 A303 RMK A01 T10121053  RH  074%=      5-min Rain = 0
KLE1 090320Z 00008KT M01/M05 A303 RMK A01 T10121053  RH  074%=      5-min Rain = 0
KLE1 090321Z 00008KT M01/M05 A303 RMK A01 T10121053  RH  074%=      5-min Rain = 0
KLE1 090322Z 00008KT M01/M05 A303 RMK A01 T10131053  RH  074%=      5-min Rain = 0
KLE1 090323Z 00008KT M01/M05 A303 RMK A01 T10131053  RH  074%=      5-min Rain = 0
KLE1 090324Z 00008KT M01/M05 A303 RMK A01 T10121053  RH  074%=      5-min Rain = 0
KLE1 090325Z 00008KT M01/M05 A303 RMK A01 T10121053  RH  074%=      5-min Rain = 0
KLE1 090326Z 00008KT M01/M05 A303 RMK A01 T10121053  RH  074%=      5-min Rain = 0
KLE1 090327Z 00008KT M01/M05 A303 RMK A01 T10131053  RH  074%=      5-min Rain = 0
KLE1 090328Z 00008KT M01/M05 A303 RMK A01 T10131053  RH  074%=      5-min Rain = 0
KLE1 090329Z 00008KT M01/M05 A303 RMK A01 T10121053  RH  074%=      5-min Rain = 0
KLE1 090330Z 00008KT M01/M05 A303 RMK A01 T10131053  RH  074%=      5-min Rain = 0
KLE1 090331Z 00008KT M01/M05 A303 RMK A01 T10121053  RH  074%=      5-min Rain = 0
KLE1 090332Z 00008KT M01/M05 A303 RMK A01 T10121054  RH  073%=      5-min Rain = 0
KLE1 090333Z 01009KT M01/M05 A303 RMK A01 T10121054  RH  073%=      5-min Rain = 0
KLE1 090334Z 01009KT M01/M05 A303 RMK A01 T10121054  RH  073%=      5-min Rain = 0
KLE1 090335Z 01009KT M01/M06 A303 RMK A01 T10121055  RH  073%=      5-min Rain = 0
KLE1 090336Z 01009KT M01/M06 A303 RMK A01 T10121055  RH  072%=      5-min Rain = 0
KLE1 090337Z 01009KT M01/M06 A303 RMK A01 T10111056  RH  072%=      5-min Rain = 0
KLE1 090338Z 01009KT M01/M06 A303 RMK A01 T10111056  RH  072%=      5-min Rain = 0
KLE1 090339Z 01009KT M01/M06 A303 RMK A01 T10111057  RH  071%=      5-min Rain = 0
KLE1 090340Z 01009KT M01/M06 A303 RMK A01 T10111058  RH  070%=      5-min Rain = 0
KLE1 090341Z 01009KT M01/M06 A303 RMK A01 T10101059  RH  070%=      5-min Rain = 0
KLE1 090342Z 01010KT M01/M06 A303 RMK A01 T10101060  RH  069%=      5-min Rain = 0
KLE1 090343Z 01010KT M01/M06 A303 RMK A01 T10101060  RH  069%=      5-min Rain = 0
KLE1 090344Z 01010KT M01/M06 A303 RMK A01 T10101062  RH  068%=      5-min Rain = 0
KLE1 090345Z 01010KT M01/M06 A303 RMK A01 T10101063  RH  067%=      5-min Rain = 0
KLE1 090346Z 01010KT M01/M06 A303 RMK A01 T10091064  RH  066%=      5-min Rain = 0
KLE1 090347Z 01009KT M01/M06 A303 RMK A01 T10091064  RH  066%=      5-min Rain = 0
KLE1 090348Z 01009KT M01/M06 A303 RMK A01 T10091063  RH  067%=      5-min Rain = 0
KLE1 090349Z 01009KT M01/M06 A303 RMK A01 T10091063  RH  067%=      5-min Rain = 0
KLE1 090350Z 01009KT M01/M06 A303 RMK A01 T10101062  RH  067%=      5-min Rain = 0
KLE1 090351Z 01009KT M01/M06 A303 RMK A01 T10101062  RH  068%=      5-min Rain = 0
KLE1 090352Z 01009KT M01/M06 A303 RMK A01 T10101062  RH  068%=      5-min Rain = 0
KLE1 090353Z 01009KT M01/M06 A303 RMK A01 T10101062  RH  068%=      5-min Rain = 0
KLE1 090354Z 01009KT M01/M06 A303 RMK A01 T10111063  RH  068%=      5-min Rain = 0
KLE1 090355Z 01008KT M01/M06 A303 RMK A01 T10101063  RH  067%=      5-min Rain = 0
KLE1 090356Z 01008KT M01/M06 A303 RMK A01 T10101063  RH  067%=      5-min Rain = 0
KLE1 090357Z 01008KT M01/M06 A303 RMK A01 T10101063  RH  067%=      5-min Rain = 0
KLE1 090358Z 01007KT M01/M06 A303 RMK A01 T10101063  RH  067%=      5-min Rain = 0
KLE1 090359Z 01007KT M01/M06 A303 RMK A01 T10111063  RH  068%=      5-min Rain = 0
KLE1 090400Z 00006KT M01/M06 A303 RMK A01 T10121063  RH  068%=      5-min Rain = 0
KLE1 090401Z 36005KT M01/M06 A303 RMK A01 T10131063  RH  069%=      5-min Rain = 0
KLE1 090402Z 34003KT M02/M06 A303 RMK A01 T10151061  RH  071%=      5-min Rain = 0
KLE1 090403Z 32002KT M02/M06 A303 RMK A01 T10171057  RH  074%=      5-min Rain = 0
KLE1 090404Z 31003KT M02/M06 A303 RMK A01 T10191055  RH  076%=      5-min Rain = 0
KLE1 090405Z 30003KT M02/M05 A303 RMK A01 T10191054  RH  077%=      5-min Rain = 0
KLE1 090406Z 30003KT M02/M06 A303 RMK A01 T10191055  RH  077%=      5-min Rain = 0
KLE1 090407Z 29003KT M02/M06 A303 RMK A01 T10191055  RH  076%=      5-min Rain = 0
KLE1 090408Z 29003KT M02/M06 A303 RMK A01 T10201056  RH  076%=      5-min Rain = 0
KLE1 090409Z 29003KT M02/M06 A303 RMK A01 T10191057  RH  075%=      5-min Rain = 0
KLE1 090410Z 29003KT M02/M06 A303 RMK A01 T10181057  RH  075%=      5-min Rain = 0
KLE1 090411Z 30002KT M02/M06 A303 RMK A01 T10181058  RH  074%=      5-min Rain = 0
KLE1 090412Z 30003KT M02/M06 A303 RMK A01 T10171059  RH  073%=      5-min Rain = 0
KLE1 090413Z 33002KT M02/M06 A303 RMK A01 T10161061  RH  072%=      5-min Rain = 0
KLE1 090414Z 32003KT M02/M06 A303 RMK A01 T10161063  RH  070%=      5-min Rain = 0
KLE1 090415Z 32002KT M02/M06 A303 RMK A01 T10151063  RH  069%=      5-min Rain = 0
KLE1 090416Z 32002KT M01/M06 A303 RMK A01 T10131063  RH  069%=      5-min Rain = 0
KLE1 090417Z 32002KT M01/M07 A303 RMK A01 T10131065  RH  067%=      5-min Rain = 0
KLE1 090418Z 30003KT M01/M07 A303 RMK A01 T10111067  RH  066%=      5-min Rain = 0
KLE1 090419Z 27002KT M01/M07 A303 RMK A01 T10101065  RH  066%=      5-min Rain = 0
KLE1 090420Z 27002KT M01/M06 A303 RMK A01 T10131061  RH  069%=      5-min Rain = 0
KLE1 090421Z 26003KT M02/M06 A303 RMK A01 T10181060  RH  073%=      5-min Rain = 0
KLE1 090422Z 26003KT M02/M06 A303 RMK A01 T10221059  RH  076%=      5-min Rain = 0
KLE1 090423Z 26003KT M03/M06 A303 RMK A01 T10251058  RH  078%=      5-min Rain = 0
KLE1 090424Z 26003KT M03/M06 A303 RMK A01 T10261056  RH  080%=      5-min Rain = 0
KLE1 090425Z 27003KT M03/M06 A303 RMK A01 T10271056  RH  081%=      5-min Rain = 0
KLE1 090426Z 27003KT M03/M06 A303 RMK A01 T10281055  RH  082%=      5-min Rain = 0
KLE1 090427Z 26003KT M03/M05 A303 RMK A01 T10281054  RH  082%=      5-min Rain = 0
KLE1 090428Z 27003KT M03/M05 A3031 RMK A01 T10281054  RH  082%=      5-min Rain = 0
KLE1 090429Z 27003KT M03/M05 A3031 RMK A01 T10281054  RH  082%=      5-min Rain = 0
KLE1 090430Z 26002KT M03/M05 A3031 RMK A01 T10281054  RH  082%=      5-min Rain = 0
KLE1 090431Z 25003KT M03/M05 A3031 RMK A01 T10281054  RH  082%=      5-min Rain = 0
KLE1 090432Z 25004KT M03/M05 A3031 RMK A01 T10271054  RH  082%=      5-min Rain = 0
KLE1 090433Z 25004KT M03/M05 A3031 RMK A01 T10271054  RH  082%=      5-min Rain = 0
KLE1 090434Z 26005KT M03/M06 A3031 RMK A01 T10291055  RH  082%=      5-min Rain = 0
KLE1 090435Z 26005KT M03/M06 A3031 RMK A01 T10301056  RH  082%=      5-min Rain = 0
KLE1 090436Z 26005KT M03/M06 A3031 RMK A01 T10301055  RH  083%=      5-min Rain = 0
KLE1 090437Z 26005KT M03/M06 A3031 RMK A01 T10311055  RH  083%=      5-min Rain = 0
KLE1 090438Z 26005KT M03/M06 A3031 RMK A01 T10311056  RH  083%=      5-min Rain = 0
KLE1 090439Z 26005KT M03/M06 A3031 RMK A01 T10321056  RH  084%=      5-min Rain = 0
KLE1 090440Z 27004KT M03/M06 A3031 RMK A01 T10321056  RH  084%=      5-min Rain = 0
KLE1 090441Z 27004KT M03/M06 A3031 RMK A01 T10331056  RH  084%=      5-min Rain = 0
KLE1 090442Z 27005KT M03/M06 A3031 RMK A01 T10331055  RH  085%=      5-min Rain = 0
KLE1 090443Z 28004KT M03/M06 A3031 RMK A01 T10331055  RH  085%=      5-min Rain = 0
KLE1 090444Z 28004KT M03/M06 A3032 RMK A01 T10331055  RH  085%=      5-min Rain = 0
KLE1 090445Z 27004KT M03/M06 A3032 RMK A01 T10331055  RH  085%=      5-min Rain = 0
KLE1 090446Z 28004KT M03/M06 A3032 RMK A01 T10331055  RH  084%=      5-min Rain = 0
KLE1 090447Z 28005KT M03/M06 A3032 RMK A01 T10331056  RH  084%=      5-min Rain = 0
KLE1 090448Z 28005KT M03/M06 A3032 RMK A01 T10321055  RH  084%=      5-min Rain = 0
KLE1 090449Z 28005KT M03/M06 A3032 RMK A01 T10321055  RH  084%=      5-min Rain = 0
KLE1 090450Z 28005KT M03/M06 A3032 RMK A01 T10321055  RH  084%=      5-min Rain = 0
KLE1 090451Z 28005KT M03/M06 A3032 RMK A01 T10331056  RH  084%=      5-min Rain = 0
KLE1 090452Z 28006KT M03/M06 A3032 RMK A01 T10331056  RH  084%=      5-min Rain = 0
KLE1 090453Z 28006KT M03/M06 A3032 RMK A01 T10331056  RH  084%=      5-min Rain = 0
KLE1 090454Z 28006KT M03/M06 A3032 RMK A01 T10341056  RH  084%=      5-min Rain = 0
KLE1 090455Z 28006KT M03/M06 A3032 RMK A01 T10341056  RH  085%=      5-min Rain = 0
KLE1 090456Z 28006KT M04/M06 A3032 RMK A01 T10351057  RH  085%=      5-min Rain = 0
KLE1 090457Z 28006KT M04/M06 A3032 RMK A01 T10351057  RH  085%=      5-min Rain = 0
KLE1 090458Z 28006KT M04/M06 A3032 RMK A01 T10351057  RH  085%=      5-min Rain = 0
KLE1 090459Z 28006KT M04/M06 A3032 RMK A01 T10351058  RH  084%=      5-min Rain = 0
KLE1 090500Z 28007KT M04/M06 A3032 RMK A01 T10361059  RH  084%=      5-min Rain = 0
KLE1 090501Z 28007KT M04/M06 A3033 RMK A01 T10361059  RH  084%=      5-min Rain = 0
KLE1 090502Z 28007KT M04/M06 A3033 RMK A01 T10361059  RH  084%=      5-min Rain = 0
KLE1 090503Z 28006KT M04/M06 A3033 RMK A01 T10351059  RH  084%=      5-min Rain = 0
KLE1 090504Z 28006KT M04/M06 A3033 RMK A01 T10351058  RH  084%=      5-min Rain = 0
KLE1 090505Z 29006KT M04/M06 A3033 RMK A01 T10351057  RH  085%=      5-min Rain = 0
KLE1 090506Z 28006KT M04/M06 A3033 RMK A01 T10351055  RH  085%=      5-min Rain = 0
KLE1 090507Z 29006KT M03/M05 A3033 RMK A01 T10341054  RH  086%=      5-min Rain = 0
KLE1 090508Z 28006KT M03/M05 A3033 RMK A01 T10341054  RH  086%=      5-min Rain = 0
KLE1 090509Z 28006KT M03/M05 A3033 RMK A01 T10341054  RH  086%=      5-min Rain = 0
KLE1 090510Z 28006KT M03/M05 A3033 RMK A01 T10331053  RH  086%=      5-min Rain = 0
KLE1 090511Z 28005KT M03/M05 A3033 RMK A01 T10341054  RH  086%=      5-min Rain = 0
KLE1 090512Z 28005KT M03/M05 A3033 RMK A01 T10341054  RH  086%=      5-min Rain = 0
KLE1 090513Z 28005KT M04/M05 A3033 RMK A01 T10351054  RH  086%=      5-min Rain = 0
KLE1 090514Z 28005KT M04/M05 A3033 RMK A01 T10351054  RH  087%=      5-min Rain = 0
KLE1 090515Z 29006KT M04/M05 A3033 RMK A01 T10351054  RH  087%=      5-min Rain = 0
KLE1 090516Z 29006KT M04/M05 A3033 RMK A01 T10351053  RH  087%=      5-min Rain = 0
KLE1 090517Z 29006KT M04/M05 A3033 RMK A01 T10351053  RH  087%=      5-min Rain = 0
KLE1 090518Z 29006KT M04/M05 A3033 RMK A01 T10351053  RH  087%=      5-min Rain = 0
KLE1 090519Z 29006KT M04/M05 A3033 RMK A01 T10351053  RH  087%=      5-min Rain = 0
KLE1 090520Z 29006KT M04/M05 A3033 RMK A01 T10361053  RH  088%=      5-min Rain = 0
KLE1 090521Z 30006KT M04/M05 A3033 RMK A01 T10361052  RH  088%=      5-min Rain = 0
KLE1 090522Z 30006KT M04/M05 A3033 RMK A01 T10361052  RH  088%=      5-min Rain = 0
KLE1 090523Z 30005KT M04/M05 A3033 RMK A01 T10361052  RH  088%=      5-min Rain = 0
KLE1 090524Z 30005KT M04/M05 A3033 RMK A01 T10361052  RH  088%=      5-min Rain = 0
KLE1 090525Z 30005KT M04/M05 A3033 RMK A01 T10351052  RH  088%=      5-min Rain = 0
KLE1 090526Z 30004KT M04/M05 A3033 RMK A01 T10351052  RH  088%=      5-min Rain = 0
KLE1 090527Z 29004KT M04/M05 A3033 RMK A01 T10351052  RH  088%=      5-min Rain = 0
KLE1 090528Z 29005KT M04/M05 A3033 RMK A01 T10361053  RH  088%=      5-min Rain = 0
KLE1 090529Z 29005KT M04/M05 A3033 RMK A01 T10361054  RH  088%=      5-min Rain = 0
KLE1 090530Z 29005KT M04/M05 A3033 RMK A01 T10361054  RH  088%=      5-min Rain = 0
KLE1 090531Z 29005KT M04/M05 A3033 RMK A01 T10361054  RH  087%=      5-min Rain = 0
KLE1 090532Z 29005KT M04/M05 A3033 RMK A01 T10361054  RH  087%=      5-min Rain = 0
KLE1 090533Z 29005KT M04/M05 A3034 RMK A01 T10361054  RH  087%=      5-min Rain = 0
KLE1 090534Z 29005KT M04/M05 A3034 RMK A01 T10371054  RH  088%=      5-min Rain = 0
KLE1 090535Z 28005KT M04/M06 A3034 RMK A01 T10371055  RH  087%=      5-min Rain = 0
KLE1 090536Z 28005KT M04/M06 A3034 RMK A01 T10371055  RH  087%=      5-min Rain = 0
KLE1 090537Z 29005KT M04/M06 A3034 RMK A01 T10381055  RH  088%=      5-min Rain = 0
KLE1 090538Z 28005KT M04/M06 A3034 RMK A01 T10381055  RH  088%=      5-min Rain = 0
KLE1 090539Z 28006KT M04/M06 A3034 RMK A01 T10381055  RH  088%=      5-min Rain = 0
KLE1 090540Z 29006KT M04/M05 A3034 RMK A01 T10381054  RH  089%=      5-min Rain = 0
KLE1 090541Z 28006KT M04/M05 A3034 RMK A01 T10381054  RH  089%=      5-min Rain = 0
KLE1 090542Z 28005KT M04/M05 A3034 RMK A01 T10381053  RH  089%=      5-min Rain = 0
KLE1 090543Z 28005KT M04/M05 A3034 RMK A01 T10371053  RH  089%=      5-min Rain = 0
KLE1 090544Z 27005KT M04/M05 A3034 RMK A01 T10371053  RH  089%=      5-min Rain = 0
KLE1 090545Z 27006KT M04/M05 A3034 RMK A01 T10381053  RH  089%=      5-min Rain = 0
KLE1 090546Z 27006KT M04/M05 A3034 RMK A01 T10381054  RH  089%=      5-min Rain = 0
KLE1 090547Z 28005KT M04/M05 A3034 RMK A01 T10381054  RH  089%=      5-min Rain = 0
KLE1 090548Z 28005KT M04/M05 A3034 RMK A01 T10391054  RH  089%=      5-min Rain = 0
KLE1 090549Z 28005KT M04/M05 A3034 RMK A01 T10391054  RH  089%=      5-min Rain = 0
KLE1 090550Z 28005KT M04/M05 A3034 RMK A01 T10391054  RH  089%=      5-min Rain = 0
KLE1 090551Z 27005KT M04/M05 A3034 RMK A01 T10391054  RH  089%=      5-min Rain = 0
KLE1 090552Z 28005KT M04/M05 A3034 RMK A01 T10391054  RH  089%=      5-min Rain = 0
KLE1 090553Z 28005KT M04/M06 A3034 RMK A01 T10391055  RH  089%=      5-min Rain = 0
KLE1 090554Z 28005KT M04/M06 A3034 RMK A01 T10391055  RH  089%=      5-min Rain = 0
KLE1 090555Z 28005KT M04/M05 A3034 RMK A01 T10381054  RH  089%=      5-min Rain = 0
KLE1 090556Z 28005KT M04/M05 A3034 RMK A01 T10371054  RH  088%=      5-min Rain = 0
KLE1 090557Z 28005KT M04/M05 A3034 RMK A01 T10371054  RH  088%=      5-min Rain = 0
KLE1 090558Z 28005KT M04/M05 A3034 RMK A01 T10371054  RH  088%=      5-min Rain = 0
KLE1 090559Z 28005KT M04/M05 A3034 RMK A01 T10371054  RH  088%=      5-min Rain = 0

Page generated in 0.1047 seconds.